GEFSSE_prec_meanprecacc_060.txt.gz
Total_Precipitation_Accumulation
0.00 0.01 0.06 0.13 0.16 0.09 0.04 0.02 0.01 0.02 0.03 0.04 0.04 0.04 0.03 0.02 0.01 0.01 0.01 0.01 0.01 0.03 0.06 0.09 0.14 0.22 0.22 0.18 0.11 0.04 0.01 0.00 0.00 0.00 0.00 0.00 0.01 0.02 0.02 0.02 0.02 0.04 0.05
0.00 0.01 0.04 0.12 0.14 0.09 0.05 0.02 0.01 0.01 0.02 0.03 0.03 0.04 0.03 0.02 0.01 0.01 0.01 0.01 0.02 0.03 0.07 0.13 0.18 0.22 0.22 0.19 0.10 0.04 0.01 0.00 0.00 0.00 0.00 0.00 0.00 0.00 0.01 0.01 0.03 0.08 0.12
0.00 0.00 0.03 0.10 0.12 0.08 0.05 0.02 0.01 0.01 0.01 0.01 0.02 0.03 0.02 0.01 0.00 0.00 0.01 0.01 0.02 0.03 0.05 0.08 0.11 0.14 0.17 0.15 0.07 0.02 0.01 0.00 0.00 0.00 0.00 0.00 0.00 0.00 0.01 0.01 0.02 0.05 0.08
0.00 0.00 0.02 0.06 0.09 0.07 0.04 0.01 0.00 0.00 0.01 0.01 0.02 0.03 0.03 0.01 0.00 0.00 0.01 0.01 0.01 0.01 0.02 0.03 0.03 0.05 0.08 0.07 0.04 0.01 0.01 0.00 0.00 0.00 0.00 0.00 0.00 0.00 0.01 0.01 0.02 0.02 0.04
0.00 0.00 0.01 0.04 0.06 0.06 0.03 0.01 0.00 0.00 0.00 0.00 0.01 0.03 0.03 0.01 0.00 0.00 0.00 0.00 0.00 0.00 0.00 0.01 0.01 0.01 0.02 0.02 0.02 0.01 0.01 0.01 0.00 0.00 0.00 0.00 0.01 0.01 0.01 0.02 0.03 0.03 0.03
0.00 0.00 0.01 0.03 0.05 0.04 0.03 0.01 0.00 0.00 0.00 0.00 0.01 0.02 0.03 0.03 0.01 0.01 0.00 0.00 0.00 0.00 0.00 0.00 0.01 0.01 0.01 0.00 0.00 0.01 0.01 0.01 0.00 0.00 0.00 0.00 0.00 0.00 0.01 0.03 0.03 0.04 0.03
0.00 0.00 0.01 0.02 0.03 0.03 0.02 0.01 0.00 0.00 0.00 0.00 0.00 0.01 0.02 0.03 0.03 0.01 0.00 0.00 0.00 0.00 0.00 0.00 0.00 0.00 0.00 0.00 0.00 0.01 0.01 0.00 0.00 0.00 0.00 0.00 0.01 0.01 0.02 0.04 0.04 0.05 0.05
0.00 0.00 0.01 0.02 0.03 0.03 0.02 0.01 0.00 0.00 0.00 0.00 0.00 0.01 0.01 0.02 0.02 0.02 0.01 0.01 0.01 0.01 0.01 0.01 0.01 0.01 0.01 0.01 0.01 0.01 0.01 0.00 0.00 0.00 0.00 0.00 0.01 0.01 0.03 0.05 0.05 0.06 0.07
0.01 0.01 0.01 0.02 0.02 0.03 0.02 0.01 0.01 0.00 0.00 0.00 0.00 0.00 0.01 0.01 0.01 0.01 0.01 0.01 0.01 0.01 0.01 0.01 0.02 0.02 0.02 0.01 0.01 0.01 0.00 0.00 0.00 0.00 0.00 0.00 0.00 0.01 0.03 0.06 0.08 0.10 0.11
0.02 0.01 0.01 0.01 0.02 0.02 0.02 0.01 0.01 0.00 0.00 0.00 0.00 0.00 0.00 0.00 0.00 0.00 0.00 0.00 0.00 0.01 0.01 0.02 0.02 0.02 0.02 0.01 0.01 0.00 0.00 0.00 0.00 0.00 0.00 0.00 0.00 0.01 0.04 0.07 0.09 0.11 0.12
0.02 0.02 0.01 0.01 0.02 0.02 0.02 0.01 0.01 0.01 0.00 0.00 0.00 0.00 0.00 0.00 0.00 0.00 0.00 0.00 0.00 0.00 0.01 0.01 0.01 0.02 0.01 0.01 0.00 0.00 0.00 0.00 0.00 0.00 0.00 0.00 0.00 0.02 0.04 0.07 0.08 0.09 0.11
0.02 0.02 0.01 0.01 0.01 0.01 0.02 0.02 0.01 0.01 0.00 0.00 0.00 0.00 0.00 0.00 0.00 0.00 0.00 0.00 0.00 0.00 0.00 0.00 0.01 0.01 0.00 0.00 0.00 0.00 0.00 0.00 0.00 0.00 0.00 0.00 0.01 0.02 0.04 0.05 0.06 0.06 0.07
0.02 0.02 0.01 0.01 0.01 0.01 0.01 0.01 0.01 0.01 0.00 0.00 0.00 0.00 0.00 0.00 0.00 0.00 0.00 0.00 0.00 0.00 0.00 0.00 0.00 0.00 0.00 0.00 0.00 0.00 0.00 0.00 0.00 0.00 0.00 0.00 0.00 0.02 0.03 0.04 0.04 0.05 0.06
0.01 0.01 0.01 0.01 0.01 0.01 0.01 0.01 0.01 0.01 0.00 0.00 0.00 0.00 0.00 0.00 0.00 0.00 0.00 0.00 0.00 0.00 0.00 0.00 0.00 0.00 0.00 0.00 0.00 0.00 0.00 0.00 0.00 0.00 0.00 0.00 0.00 0.01 0.02 0.03 0.03 0.05 0.06
0.01 0.01 0.01 0.01 0.01 0.01 0.01 0.01 0.01 0.01 0.00 0.00 0.00 0.00 0.00 0.00 0.00 0.00 0.00 0.00 0.00 0.00 0.00 0.00 0.00 0.00 0.00 0.00 0.00 0.00 0.00 0.00 0.00 0.00 0.00 0.00 0.00 0.00 0.01 0.01 0.02 0.04 0.06
0.01 0.01 0.01 0.01 0.01 0.01 0.01 0.00 0.00 0.00 0.01 0.00 0.00 0.00 0.00 0.00 0.00 0.00 0.00 0.00 0.00 0.00 0.00 0.00 0.00 0.00 0.00 0.00 0.00 0.00 0.00 0.00 0.00 0.00 0.00 0.00 0.00 0.00 0.00 0.00 0.01 0.03 0.05
0.01 0.02 0.02 0.02 0.02 0.01 0.01 0.01 0.02 0.02 0.02 0.02 0.02 0.01 0.01 0.00 0.00 0.00 0.00 0.00 0.00 0.00 0.00 0.00 0.00 0.00 0.00 0.00 0.00 0.00 0.00 0.00 0.00 0.00 0.00 0.00 0.00 0.00 0.00 0.00 0.01 0.02 0.03
0.01 0.02 0.02 0.02 0.02 0.02 0.02 0.04 0.04 0.04 0.05 0.04 0.04 0.02 0.02 0.01 0.01 0.00 0.00 0.00 0.00 0.00 0.00 0.00 0.00 0.00 0.00 0.00 0.00 0.00 0.00 0.00 0.00 0.00 0.00 0.00 0.00 0.00 0.00 0.00 0.01 0.01 0.01
0.00 0.01 0.02 0.02 0.03 0.05 0.06 0.10 0.09 0.09 0.11 0.11 0.09 0.05 0.04 0.03 0.02 0.01 0.00 0.00 0.00 0.00 0.00 0.00 0.00 0.00 0.00 0.00 0.00 0.00 0.00 0.00 0.00 0.00 0.00 0.00 0.00 0.00 0.00 0.00 0.00 0.00 0.01
0.00 0.00 0.01 0.02 0.04 0.07 0.11 0.14 0.14 0.14 0.15 0.15 0.14 0.12 0.08 0.05 0.03 0.01 0.01 0.00 0.00 0.00 0.00 0.00 0.00 0.00 0.00 0.00 0.00 0.00 0.00 0.00 0.00 0.00 0.00 0.00 0.00 0.00 0.00 0.00 0.00 0.00 0.00
0.00 0.00 0.00 0.02 0.03 0.06 0.08 0.09 0.13 0.15 0.17 0.16 0.15 0.15 0.13 0.09 0.06 0.03 0.01 0.01 0.00 0.00 0.00 0.00 0.00 0.00 0.00 0.00 0.00 0.01 0.00 0.00 0.00 0.00 0.00 0.00 0.00 0.00 0.00 0.00 0.00 0.01 0.01
0.00 0.00 0.00 0.01 0.02 0.03 0.05 0.09 0.18 0.24 0.24 0.23 0.19 0.16 0.13 0.11 0.09 0.07 0.04 0.02 0.01 0.01 0.00 0.00 0.00 0.00 0.00 0.00 0.01 0.03 0.01 0.00 0.00 0.00 0.00 0.00 0.00 0.00 0.00 0.00 0.01 0.01 0.01
0.00 0.00 0.00 0.00 0.02 0.04 0.05 0.11 0.16 0.19 0.18 0.15 0.12 0.11 0.11 0.12 0.11 0.09 0.06 0.05 0.03 0.02 0.01 0.01 0.01 0.01 0.02 0.01 0.01 0.04 0.05 0.03 0.02 0.01 0.00 0.00 0.00 0.00 0.00 0.00 0.00 0.00 0.01
0.00 0.00 0.00 0.01 0.03 0.04 0.05 0.08 0.11 0.12 0.11 0.10 0.11 0.11 0.13 0.12 0.10 0.09 0.07 0.06 0.05 0.04 0.03 0.02 0.02 0.02 0.03 0.03 0.02 0.03 0.05 0.06 0.07 0.05 0.02 0.01 0.00 0.00 0.00 0.00 0.00 0.00 0.00
0.00 0.00 0.00 0.01 0.03 0.04 0.05 0.06 0.10 0.11 0.12 0.12 0.10 0.10 0.10 0.09 0.08 0.08 0.07 0.07 0.06 0.05 0.04 0.03 0.03 0.04 0.05 0.06 0.06 0.06 0.06 0.07 0.09 0.11 0.07 0.03 0.01 0.00 0.00 0.00 0.00 0.00 0.00
0.00 0.00 0.00 0.01 0.02 0.03 0.04 0.06 0.08 0.09 0.09 0.08 0.07 0.07 0.07 0.08 0.07 0.07 0.07 0.07 0.05 0.04 0.04 0.03 0.04 0.04 0.05 0.07 0.08 0.09 0.11 0.12 0.10 0.11 0.10 0.06 0.04 0.01 0.00 0.00 0.00 0.00 0.01

GEFSSE_prec_meanprecacc_066.txt.gz
Total_Precipitation_Accumulation
0.00 0.01 0.07 0.14 0.17 0.10 0.05 0.03 0.03 0.03 0.04 0.05 0.05 0.04 0.04 0.02 0.02 0.01 0.01 0.01 0.02 0.04 0.08 0.12 0.18 0.25 0.25 0.19 0.12 0.04 0.01 0.00 0.00 0.00 0.00 0.00 0.01 0.02 0.02 0.02 0.02 0.05 0.07
0.00 0.01 0.05 0.13 0.15 0.09 0.06 0.04 0.02 0.02 0.03 0.03 0.03 0.04 0.03 0.02 0.01 0.01 0.01 0.02 0.03 0.05 0.10 0.17 0.23 0.25 0.24 0.20 0.10 0.04 0.01 0.00 0.00 0.00 0.00 0.00 0.00 0.00 0.01 0.01 0.03 0.08 0.12
0.00 0.01 0.04 0.11 0.13 0.09 0.06 0.03 0.01 0.01 0.01 0.02 0.02 0.03 0.02 0.01 0.01 0.01 0.01 0.02 0.03 0.05 0.08 0.13 0.16 0.17 0.19 0.16 0.07 0.02 0.01 0.00 0.00 0.00 0.00 0.00 0.00 0.00 0.01 0.01 0.03 0.05 0.09
0.00 0.01 0.02 0.07 0.10 0.08 0.05 0.02 0.01 0.01 0.01 0.01 0.02 0.03 0.03 0.01 0.01 0.01 0.01 0.02 0.03 0.04 0.06 0.06 0.06 0.07 0.09 0.08 0.04 0.01 0.01 0.00 0.00 0.00 0.00 0.00 0.00 0.01 0.01 0.02 0.03 0.03 0.04
0.00 0.00 0.02 0.04 0.07 0.06 0.04 0.02 0.01 0.01 0.01 0.01 0.01 0.03 0.03 0.01 0.01 0.01 0.01 0.01 0.02 0.02 0.02 0.02 0.02 0.02 0.03 0.03 0.02 0.01 0.01 0.01 0.00 0.00 0.00 0.00 0.01 0.02 0.02 0.04 0.04 0.05 0.04
0.00 0.00 0.01 0.04 0.05 0.05 0.03 0.01 0.01 0.01 0.00 0.01 0.01 0.02 0.03 0.03 0.01 0.01 0.01 0.01 0.01 0.01 0.01 0.01 0.01 0.01 0.01 0.00 0.01 0.01 0.01 0.01 0.00 0.00 0.00 0.00 0.01 0.02 0.04 0.04 0.05 0.06 0.06
0.00 0.00 0.01 0.03 0.04 0.04 0.02 0.01 0.01 0.01 0.00 0.00 0.00 0.01 0.02 0.03 0.03 0.01 0.01 0.00 0.00 0.00 0.00 0.01 0.01 0.01 0.01 0.00 0.00 0.01 0.01 0.00 0.00 0.00 0.00 0.00 0.02 0.05 0.05 0.06 0.06 0.08 0.09
0.00 0.00 0.01 0.03 0.03 0.03 0.02 0.01 0.01 0.00 0.00 0.00 0.00 0.01 0.01 0.02 0.02 0.02 0.01 0.01 0.01 0.01 0.01 0.01 0.01 0.01 0.01 0.01 0.01 0.01 0.01 0.00 0.00 0.00 0.00 0.01 0.02 0.04 0.05 0.06 0.07 0.08 0.09
0.01 0.01 0.01 0.03 0.03 0.03 0.02 0.02 0.01 0.00 0.00 0.00 0.00 0.00 0.01 0.01 0.01 0.01 0.01 0.02 0.01 0.01 0.01 0.02 0.02 0.02 0.02 0.01 0.01 0.01 0.00 0.00 0.00 0.00 0.00 0.01 0.01 0.02 0.04 0.07 0.09 0.11 0.12
0.02 0.01 0.01 0.02 0.02 0.03 0.02 0.02 0.01 0.01 0.00 0.00 0.00 0.00 0.00 0.00 0.00 0.00 0.00 0.00 0.00 0.01 0.01 0.02 0.02 0.02 0.02 0.01 0.01 0.00 0.00 0.00 0.00 0.00 0.00 0.00 0.01 0.02 0.04 0.08 0.09 0.11 0.13
0.03 0.02 0.01 0.01 0.02 0.02 0.02 0.01 0.01 0.01 0.00 0.00 0.00 0.00 0.00 0.00 0.00 0.00 0.00 0.00 0.00 0.00 0.01 0.01 0.01 0.02 0.01 0.01 0.00 0.00 0.00 0.00 0.00 0.00 0.00 0.01 0.01 0.02 0.04 0.07 0.08 0.09 0.11
0.03 0.03 0.01 0.01 0.01 0.01 0.02 0.02 0.01 0.01 0.00 0.00 0.00 0.00 0.00 0.00 0.00 0.00 0.00 0.00 0.00 0.00 0.00 0.00 0.01 0.01 0.00 0.00 0.00 0.00 0.00 0.00 0.00 0.00 0.00 0.01 0.01 0.02 0.04 0.05 0.06 0.06 0.07
0.02 0.02 0.01 0.01 0.01 0.01 0.01 0.01 0.01 0.01 0.00 0.00 0.00 0.00 0.00 0.00 0.00 0.00 0.00 0.00 0.00 0.00 0.00 0.00 0.00 0.00 0.00 0.00 0.00 0.00 0.00 0.00 0.00 0.00 0.00 0.00 0.01 0.02 0.03 0.04 0.05 0.05 0.06
0.01 0.01 0.01 0.01 0.01 0.01 0.01 0.01 0.01 0.01 0.00 0.00 0.00 0.00 0.00 0.00 0.00 0.00 0.00 0.00 0.00 0.00 0.00 0.00 0.00 0.00 0.00 0.00 0.00 0.00 0.00 0.00 0.00 0.00 0.00 0.00 0.00 0.01 0.02 0.03 0.03 0.05 0.06
0.02 0.01 0.01 0.01 0.01 0.01 0.01 0.01 0.01 0.01 0.00 0.00 0.00 0.00 0.00 0.00 0.00 0.00 0.00 0.00 0.00 0.00 0.00 0.00 0.00 0.00 0.00 0.00 0.00 0.00 0.00 0.00 0.00 0.00 0.00 0.00 0.00 0.00 0.01 0.01 0.02 0.04 0.06
0.02 0.02 0.02 0.02 0.02 0.01 0.01 0.01 0.00 0.01 0.01 0.00 0.00 0.00 0.00 0.00 0.00 0.00 0.00 0.00 0.00 0.00 0.00 0.00 0.00 0.00 0.00 0.00 0.00 0.00 0.00 0.00 0.00 0.00 0.00 0.00 0.00 0.00 0.00 0.00 0.01 0.03 0.05
0.02 0.03 0.03 0.03 0.03 0.02 0.01 0.02 0.02 0.02 0.02 0.02 0.02 0.01 0.01 0.00 0.00 0.00 0.00 0.00 0.00 0.00 0.00 0.00 0.00 0.00 0.00 0.00 0.00 0.00 0.00 0.00 0.00 0.00 0.00 0.00 0.00 0.00 0.00 0.00 0.01 0.02 0.03
0.02 0.03 0.03 0.04 0.03 0.03 0.04 0.06 0.06 0.06 0.06 0.05 0.04 0.02 0.02 0.01 0.01 0.00 0.00 0.00 0.00 0.00 0.00 0.00 0.00 0.00 0.00 0.00 0.00 0.00 0.00 0.00 0.00 0.00 0.00 0.00 0.00 0.00 0.00 0.00 0.01 0.01 0.01
0.01 0.02 0.03 0.03 0.04 0.06 0.10 0.14 0.13 0.13 0.14 0.14 0.11 0.06 0.04 0.03 0.02 0.01 0.00 0.00 0.00 0.00 0.00 0.00 0.00 0.00 0.00 0.00 0.00 0.00 0.00 0.00 0.00 0.00 0.00 0.00 0.00 0.00 0.00 0.00 0.00 0.00 0.01
0.00 0.00 0.01 0.03 0.05 0.10 0.16 0.19 0.19 0.18 0.19 0.19 0.16 0.13 0.10 0.06 0.04 0.02 0.01 0.00 0.00 0.00 0.00 0.00 0.00 0.00 0.00 0.00 0.00 0.00 0.00 0.00 0.00 0.00 0.00 0.00 0.00 0.00 0.00 0.00 0.00 0.00 0.00
0.00 0.00 0.01 0.02 0.04 0.08 0.11 0.11 0.15 0.17 0.20 0.20 0.19 0.19 0.17 0.13 0.09 0.04 0.02 0.01 0.00 0.00 0.00 0.00 0.00 0.00 0.00 0.00 0.01 0.01 0.00 0.00 0.00 0.00 0.00 0.00 0.00 0.00 0.00 0.00 0.00 0.01 0.01
0.00 0.00 0.00 0.01 0.02 0.05 0.06 0.10 0.20 0.27 0.28 0.28 0.27 0.22 0.18 0.17 0.14 0.10 0.06 0.04 0.03 0.02 0.01 0.01 0.01 0.01 0.01 0.01 0.02 0.03 0.02 0.00 0.00 0.00 0.00 0.00 0.00 0.00 0.00 0.00 0.01 0.01 0.01
0.00 0.00 0.00 0.00 0.02 0.04 0.07 0.14 0.19 0.23 0.21 0.18 0.15 0.14 0.16 0.19 0.18 0.16 0.13 0.10 0.08 0.05 0.04 0.04 0.04 0.03 0.03 0.02 0.02 0.05 0.05 0.03 0.02 0.01 0.00 0.00 0.00 0.00 0.00 0.00 0.00 0.00 0.01
0.00 0.00 0.00 0.01 0.03 0.04 0.07 0.09 0.12 0.13 0.12 0.11 0.13 0.15 0.20 0.21 0.20 0.19 0.18 0.15 0.12 0.10 0.09 0.08 0.07 0.06 0.06 0.05 0.04 0.04 0.05 0.06 0.07 0.05 0.02 0.01 0.00 0.00 0.00 0.00 0.00 0.00 0.00
0.00 0.00 0.00 0.01 0.03 0.04 0.05 0.07 0.11 0.12 0.13 0.13 0.13 0.15 0.16 0.17 0.17 0.18 0.17 0.16 0.14 0.14 0.13 0.12 0.11 0.10 0.09 0.09 0.08 0.07 0.07 0.08 0.09 0.11 0.07 0.03 0.01 0.00 0.00 0.00 0.00 0.00 0.00
0.00 0.00 0.00 0.01 0.02 0.03 0.04 0.06 0.08 0.10 0.11 0.10 0.09 0.11 0.12 0.16 0.17 0.16 0.17 0.16 0.16 0.15 0.14 0.13 0.13 0.11 0.10 0.10 0.10 0.11 0.12 0.13 0.11 0.11 0.10 0.06 0.04 0.01 0.00 0.00 0.00 0.00 0.01

GEFSSE_prec_meanprecacc_072.txt.gz
Total_Precipitation_Accumulation
0.00 0.01 0.08 0.15 0.18 0.11 0.06 0.05 0.04 0.04 0.05 0.05 0.05 0.05 0.04 0.03 0.02 0.01 0.01 0.01 0.02 0.05 0.11 0.15 0.21 0.28 0.28 0.20 0.12 0.05 0.02 0.01 0.00 0.00 0.00 0.00 0.01 0.03 0.03 0.03 0.03 0.06 0.09
0.00 0.01 0.06 0.14 0.16 0.10 0.07 0.05 0.03 0.03 0.03 0.04 0.04 0.04 0.04 0.02 0.01 0.01 0.02 0.03 0.05 0.07 0.12 0.20 0.27 0.29 0.26 0.20 0.10 0.04 0.01 0.00 0.00 0.00 0.00 0.00 0.00 0.00 0.01 0.01 0.03 0.09 0.13
0.00 0.01 0.04 0.11 0.14 0.10 0.07 0.04 0.02 0.02 0.02 0.02 0.03 0.03 0.03 0.01 0.01 0.01 0.02 0.03 0.05 0.07 0.10 0.16 0.19 0.19 0.20 0.16 0.07 0.02 0.01 0.00 0.00 0.00 0.00 0.00 0.00 0.01 0.01 0.02 0.03 0.06 0.09
0.00 0.01 0.03 0.08 0.10 0.09 0.06 0.03 0.02 0.01 0.02 0.02 0.02 0.03 0.03 0.01 0.01 0.01 0.02 0.03 0.04 0.06 0.08 0.08 0.08 0.08 0.09 0.08 0.04 0.02 0.01 0.00 0.00 0.00 0.00 0.00 0.01 0.03 0.03 0.04 0.04 0.04 0.05
0.00 0.00 0.02 0.05 0.08 0.07 0.05 0.02 0.01 0.01 0.01 0.01 0.02 0.03 0.03 0.02 0.01 0.01 0.02 0.03 0.04 0.04 0.03 0.03 0.03 0.03 0.03 0.03 0.02 0.01 0.01 0.01 0.00 0.00 0.00 0.01 0.02 0.04 0.05 0.06 0.07 0.07 0.07
0.00 0.00 0.02 0.04 0.06 0.06 0.04 0.02 0.01 0.01 0.01 0.01 0.01 0.02 0.03 0.03 0.02 0.02 0.01 0.02 0.01 0.01 0.02 0.02 0.02 0.01 0.01 0.01 0.01 0.01 0.01 0.01 0.00 0.00 0.00 0.01 0.03 0.07 0.07 0.08 0.08 0.10 0.11
0.00 0.00 0.02 0.04 0.05 0.05 0.03 0.02 0.01 0.01 0.01 0.01 0.01 0.01 0.02 0.04 0.03 0.02 0.01 0.01 0.01 0.01 0.01 0.01 0.01 0.01 0.01 0.00 0.00 0.01 0.01 0.00 0.00 0.00 0.01 0.02 0.05 0.11 0.10 0.09 0.09 0.11 0.12
0.00 0.00 0.02 0.04 0.04 0.04 0.03 0.02 0.01 0.01 0.01 0.01 0.01 0.01 0.01 0.03 0.03 0.02 0.01 0.01 0.01 0.01 0.01 0.01 0.01 0.01 0.01 0.01 0.01 0.01 0.01 0.00 0.00 0.01 0.01 0.02 0.04 0.07 0.07 0.07 0.08 0.09 0.10
0.01 0.01 0.02 0.03 0.04 0.04 0.03 0.02 0.01 0.01 0.01 0.00 0.00 0.01 0.01 0.01 0.02 0.01 0.01 0.02 0.01 0.01 0.01 0.02 0.02 0.02 0.02 0.01 0.01 0.01 0.00 0.00 0.00 0.00 0.01 0.01 0.03 0.04 0.05 0.08 0.10 0.11 0.12
0.02 0.01 0.01 0.02 0.03 0.03 0.03 0.02 0.01 0.01 0.00 0.00 0.00 0.00 0.00 0.00 0.01 0.00 0.00 0.01 0.01 0.01 0.01 0.02 0.02 0.02 0.02 0.01 0.01 0.00 0.00 0.00 0.00 0.00 0.00 0.01 0.02 0.03 0.04 0.08 0.09 0.11 0.13
0.03 0.02 0.01 0.01 0.02 0.02 0.02 0.02 0.01 0.01 0.00 0.00 0.00 0.00 0.00 0.00 0.00 0.00 0.00 0.00 0.00 0.00 0.01 0.01 0.02 0.02 0.01 0.01 0.00 0.00 0.00 0.00 0.00 0.00 0.00 0.01 0.02 0.03 0.04 0.07 0.08 0.10 0.11
0.04 0.03 0.02 0.01 0.01 0.02 0.02 0.02 0.02 0.01 0.00 0.00 0.00 0.00 0.00 0.00 0.00 0.00 0.00 0.00 0.00 0.00 0.00 0.00 0.01 0.01 0.00 0.00 0.00 0.00 0.00 0.00 0.00 0.00 0.00 0.01 0.01 0.03 0.04 0.05 0.06 0.06 0.07
0.03 0.03 0.02 0.01 0.01 0.01 0.01 0.01 0.01 0.01 0.00 0.00 0.00 0.00 0.00 0.00 0.00 0.00 0.00 0.00 0.00 0.00 0.00 0.00 0.00 0.00 0.00 0.00 0.00 0.00 0.00 0.00 0.00 0.00 0.00 0.00 0.01 0.02 0.03 0.04 0.05 0.05 0.06
0.01 0.01 0.01 0.01 0.01 0.01 0.01 0.01 0.01 0.01 0.00 0.00 0.00 0.00 0.00 0.00 0.00 0.00 0.00 0.00 0.00 0.00 0.00 0.00 0.00 0.00 0.00 0.00 0.00 0.00 0.00 0.00 0.00 0.00 0.00 0.00 0.00 0.01 0.02 0.03 0.03 0.05 0.06
0.02 0.01 0.01 0.01 0.01 0.01 0.01 0.01 0.01 0.01 0.00 0.00 0.00 0.00 0.00 0.00 0.00 0.00 0.00 0.00 0.00 0.00 0.00 0.00 0.00 0.00 0.00 0.00 0.00 0.00 0.00 0.00 0.00 0.00 0.00 0.00 0.00 0.00 0.01 0.01 0.02 0.04 0.06
0.02 0.02 0.02 0.02 0.02 0.02 0.01 0.01 0.01 0.01 0.01 0.00 0.00 0.00 0.00 0.00 0.00 0.00 0.00 0.00 0.00 0.00 0.00 0.00 0.00 0.00 0.00 0.00 0.00 0.00 0.00 0.00 0.00 0.00 0.00 0.00 0.00 0.00 0.00 0.00 0.01 0.03 0.05
0.02 0.03 0.03 0.03 0.03 0.02 0.02 0.02 0.02 0.02 0.02 0.02 0.02 0.01 0.01 0.01 0.00 0.00 0.00 0.00 0.00 0.00 0.00 0.00 0.00 0.00 0.00 0.00 0.00 0.00 0.00 0.00 0.00 0.00 0.00 0.00 0.00 0.00 0.00 0.00 0.01 0.02 0.03
0.02 0.03 0.04 0.04 0.03 0.04 0.05 0.07 0.07 0.06 0.06 0.06 0.05 0.02 0.02 0.01 0.01 0.00 0.00 0.00 0.00 0.00 0.00 0.00 0.00 0.00 0.00 0.00 0.00 0.00 0.00 0.00 0.00 0.00 0.00 0.00 0.00 0.00 0.00 0.00 0.01 0.01 0.01
0.01 0.02 0.03 0.04 0.04 0.07 0.11 0.15 0.14 0.14 0.14 0.14 0.11 0.06 0.04 0.04 0.02 0.01 0.01 0.00 0.00 0.00 0.00 0.00 0.00 0.00 0.00 0.00 0.00 0.00 0.00 0.00 0.00 0.00 0.00 0.00 0.00 0.00 0.00 0.00 0.00 0.00 0.01
0.00 0.00 0.02 0.04 0.06 0.10 0.17 0.20 0.20 0.18 0.20 0.20 0.16 0.14 0.11 0.07 0.04 0.02 0.01 0.00 0.00 0.00 0.00 0.00 0.00 0.00 0.00 0.00 0.00 0.00 0.00 0.00 0.00 0.00 0.00 0.00 0.00 0.00 0.00 0.00 0.00 0.00 0.00
0.00 0.00 0.01 0.02 0.04 0.09 0.11 0.11 0.15 0.17 0.21 0.21 0.20 0.21 0.19 0.14 0.10 0.05 0.03 0.02 0.01 0.00 0.00 0.00 0.00 0.00 0.00 0.00 0.01 0.01 0.00 0.00 0.00 0.00 0.00 0.00 0.00 0.00 0.00 0.00 0.00 0.01 0.01
0.00 0.00 0.00 0.01 0.02 0.05 0.06 0.11 0.20 0.28 0.29 0.29 0.28 0.23 0.20 0.18 0.16 0.12 0.07 0.05 0.04 0.03 0.02 0.02 0.02 0.02 0.01 0.01 0.02 0.03 0.02 0.00 0.00 0.00 0.00 0.00 0.00 0.00 0.00 0.00 0.01 0.01 0.01
0.00 0.00 0.00 0.00 0.02 0.04 0.07 0.14 0.19 0.24 0.21 0.18 0.15 0.14 0.16 0.20 0.20 0.17 0.15 0.13 0.10 0.08 0.06 0.06 0.05 0.05 0.04 0.03 0.03 0.05 0.06 0.04 0.02 0.01 0.01 0.00 0.00 0.00 0.00 0.00 0.00 0.00 0.01
0.00 0.00 0.00 0.01 0.03 0.04 0.07 0.10 0.12 0.14 0.13 0.11 0.13 0.15 0.20 0.22 0.22 0.22 0.21 0.19 0.16 0.14 0.12 0.12 0.11 0.10 0.10 0.08 0.07 0.06 0.08 0.09 0.10 0.07 0.03 0.02 0.01 0.00 0.00 0.00 0.00 0.00 0.00
0.00 0.00 0.00 0.01 0.03 0.04 0.05 0.07 0.11 0.13 0.13 0.13 0.13 0.15 0.16 0.18 0.19 0.20 0.20 0.21 0.19 0.19 0.19 0.19 0.18 0.17 0.16 0.15 0.13 0.12 0.11 0.11 0.12 0.14 0.09 0.04 0.03 0.01 0.00 0.00 0.00 0.00 0.00
0.00 0.00 0.00 0.01 0.02 0.03 0.04 0.06 0.08 0.10 0.11 0.11 0.09 0.11 0.12 0.16 0.18 0.18 0.19 0.20 0.22 0.23 0.23 0.23 0.24 0.23 0.21 0.20 0.19 0.18 0.19 0.19 0.16 0.17 0.15 0.10 0.07 0.04 0.02 0.01 0.01 0.01 0.01

GEFSSE_prec_meanprecacc_078.txt.gz
Total_Precipitation_Accumulation
0.00 0.01 0.08 0.15 0.18 0.11 0.07 0.05 0.04 0.05 0.06 0.07 0.07 0.06 0.05 0.04 0.03 0.02 0.02 0.02 0.03 0.07 0.12 0.17 0.24 0.31 0.29 0.21 0.13 0.05 0.02 0.01 0.00 0.00 0.00 0.00 0.01 0.03 0.04 0.03 0.05 0.08 0.10
0.00 0.01 0.06 0.14 0.16 0.11 0.08 0.05 0.04 0.04 0.04 0.04 0.05 0.06 0.05 0.03 0.02 0.02 0.02 0.04 0.06 0.09 0.15 0.23 0.30 0.31 0.27 0.21 0.11 0.05 0.01 0.00 0.00 0.00 0.00 0.00 0.00 0.01 0.01 0.02 0.04 0.09 0.14
0.00 0.01 0.04 0.12 0.14 0.11 0.08 0.05 0.03 0.02 0.02 0.03 0.04 0.04 0.04 0.02 0.02 0.02 0.03 0.05 0.06 0.08 0.12 0.19 0.21 0.20 0.20 0.16 0.07 0.03 0.01 0.00 0.00 0.00 0.00 0.01 0.01 0.01 0.02 0.02 0.04 0.07 0.10
0.00 0.01 0.03 0.08 0.11 0.10 0.07 0.04 0.02 0.02 0.02 0.02 0.03 0.04 0.04 0.02 0.02 0.02 0.03 0.04 0.05 0.08 0.10 0.10 0.09 0.08 0.10 0.08 0.04 0.02 0.01 0.00 0.00 0.00 0.01 0.01 0.02 0.04 0.04 0.04 0.05 0.05 0.07
0.00 0.00 0.02 0.05 0.08 0.08 0.06 0.03 0.02 0.02 0.02 0.02 0.02 0.04 0.04 0.02 0.02 0.02 0.03 0.04 0.05 0.05 0.04 0.04 0.03 0.03 0.03 0.03 0.02 0.01 0.01 0.01 0.00 0.00 0.01 0.02 0.03 0.07 0.07 0.08 0.09 0.09 0.09
0.00 0.00 0.02 0.04 0.07 0.07 0.05 0.03 0.02 0.02 0.01 0.02 0.02 0.02 0.04 0.03 0.02 0.02 0.02 0.02 0.02 0.02 0.02 0.02 0.02 0.02 0.01 0.01 0.01 0.01 0.01 0.01 0.00 0.01 0.02 0.03 0.05 0.11 0.11 0.10 0.11 0.13 0.14
0.00 0.00 0.02 0.04 0.05 0.05 0.04 0.03 0.02 0.02 0.02 0.01 0.01 0.01 0.03 0.04 0.04 0.03 0.02 0.01 0.01 0.01 0.02 0.02 0.01 0.01 0.01 0.00 0.00 0.01 0.01 0.00 0.01 0.01 0.02 0.04 0.07 0.15 0.14 0.11 0.11 0.13 0.13
0.00 0.01 0.02 0.04 0.05 0.05 0.04 0.03 0.02 0.02 0.01 0.01 0.01 0.01 0.02 0.03 0.03 0.02 0.02 0.02 0.01 0.02 0.01 0.02 0.02 0.01 0.01 0.01 0.01 0.01 0.01 0.01 0.01 0.01 0.02 0.03 0.05 0.09 0.08 0.08 0.09 0.10 0.10
0.01 0.01 0.02 0.04 0.05 0.05 0.04 0.03 0.02 0.02 0.01 0.01 0.01 0.01 0.01 0.01 0.02 0.02 0.02 0.02 0.02 0.02 0.02 0.02 0.02 0.02 0.02 0.01 0.01 0.01 0.00 0.00 0.01 0.01 0.01 0.02 0.03 0.05 0.06 0.08 0.10 0.12 0.12
0.02 0.02 0.01 0.03 0.04 0.04 0.04 0.03 0.02 0.01 0.01 0.01 0.00 0.00 0.00 0.00 0.01 0.01 0.01 0.01 0.01 0.01 0.01 0.02 0.02 0.02 0.02 0.01 0.01 0.00 0.00 0.00 0.00 0.00 0.01 0.01 0.02 0.03 0.05 0.08 0.09 0.11 0.13
0.04 0.03 0.01 0.02 0.03 0.03 0.03 0.02 0.02 0.01 0.01 0.00 0.00 0.00 0.00 0.00 0.00 0.00 0.00 0.00 0.00 0.01 0.01 0.01 0.02 0.02 0.01 0.01 0.00 0.00 0.00 0.00 0.00 0.00 0.01 0.01 0.02 0.03 0.05 0.07 0.08 0.10 0.11
0.04 0.04 0.02 0.01 0.02 0.02 0.02 0.02 0.02 0.01 0.01 0.00 0.00 0.00 0.00 0.00 0.00 0.00 0.00 0.00 0.00 0.00 0.00 0.01 0.01 0.01 0.00 0.00 0.00 0.00 0.00 0.00 0.00 0.00 0.01 0.01 0.02 0.03 0.04 0.05 0.06 0.07 0.07
0.03 0.03 0.02 0.01 0.01 0.01 0.02 0.01 0.01 0.01 0.01 0.00 0.00 0.00 0.00 0.00 0.00 0.00 0.00 0.00 0.00 0.00 0.00 0.00 0.00 0.00 0.00 0.00 0.00 0.00 0.00 0.00 0.00 0.00 0.00 0.00 0.01 0.02 0.03 0.04 0.05 0.05 0.06
0.02 0.02 0.02 0.02 0.01 0.01 0.01 0.01 0.01 0.01 0.00 0.00 0.00 0.00 0.00 0.00 0.00 0.00 0.00 0.00 0.00 0.00 0.00 0.00 0.00 0.00 0.00 0.00 0.00 0.00 0.00 0.00 0.00 0.00 0.00 0.00 0.00 0.01 0.02 0.03 0.04 0.05 0.06
0.02 0.02 0.02 0.02 0.02 0.01 0.01 0.01 0.01 0.01 0.00 0.00 0.00 0.00 0.00 0.00 0.00 0.00 0.00 0.00 0.00 0.00 0.00 0.00 0.00 0.00 0.00 0.00 0.00 0.00 0.00 0.00 0.00 0.00 0.00 0.00 0.00 0.00 0.01 0.01 0.02 0.04 0.06
0.02 0.02 0.02 0.03 0.03 0.02 0.01 0.01 0.01 0.01 0.01 0.00 0.00 0.00 0.00 0.00 0.00 0.00 0.00 0.00 0.00 0.00 0.00 0.00 0.00 0.00 0.00 0.00 0.00 0.00 0.00 0.00 0.00 0.00 0.00 0.00 0.00 0.00 0.00 0.00 0.01 0.03 0.05
0.02 0.03 0.03 0.04 0.04 0.02 0.02 0.02 0.02 0.02 0.02 0.02 0.02 0.01 0.01 0.01 0.00 0.00 0.00 0.00 0.00 0.00 0.00 0.00 0.00 0.00 0.00 0.00 0.00 0.00 0.00 0.00 0.00 0.00 0.00 0.00 0.00 0.00 0.00 0.00 0.01 0.02 0.03
0.02 0.03 0.04 0.04 0.04 0.04 0.05 0.07 0.07 0.06 0.06 0.06 0.05 0.02 0.02 0.01 0.01 0.00 0.00 0.00 0.00 0.00 0.00 0.00 0.00 0.00 0.00 0.00 0.00 0.00 0.00 0.00 0.00 0.00 0.00 0.00 0.00 0.00 0.00 0.00 0.01 0.01 0.01
0.01 0.02 0.04 0.04 0.05 0.08 0.12 0.15 0.14 0.14 0.14 0.14 0.11 0.06 0.04 0.04 0.02 0.01 0.01 0.00 0.00 0.00 0.00 0.00 0.00 0.00 0.00 0.00 0.00 0.00 0.00 0.00 0.00 0.00 0.00 0.00 0.00 0.00 0.00 0.00 0.00 0.00 0.01
0.00 0.01 0.02 0.04 0.06 0.11 0.17 0.20 0.21 0.19 0.20 0.20 0.16 0.14 0.11 0.07 0.04 0.02 0.01 0.01 0.00 0.00 0.00 0.00 0.00 0.00 0.00 0.00 0.00 0.00 0.00 0.00 0.00 0.00 0.00 0.00 0.00 0.00 0.00 0.00 0.00 0.00 0.00
0.00 0.00 0.01 0.02 0.04 0.09 0.11 0.12 0.16 0.18 0.21 0.21 0.20 0.22 0.19 0.15 0.10 0.05 0.03 0.02 0.01 0.00 0.00 0.00 0.00 0.00 0.00 0.00 0.01 0.01 0.00 0.00 0.00 0.00 0.00 0.00 0.00 0.00 0.00 0.00 0.00 0.01 0.01
0.00 0.01 0.01 0.02 0.03 0.05 0.07 0.11 0.20 0.28 0.29 0.29 0.28 0.24 0.20 0.18 0.16 0.12 0.08 0.05 0.04 0.03 0.02 0.02 0.02 0.02 0.01 0.01 0.02 0.03 0.02 0.00 0.00 0.00 0.00 0.00 0.00 0.00 0.00 0.00 0.01 0.01 0.01
0.00 0.00 0.01 0.01 0.03 0.05 0.08 0.15 0.20 0.24 0.22 0.19 0.15 0.14 0.17 0.20 0.21 0.18 0.16 0.13 0.11 0.09 0.07 0.07 0.06 0.05 0.05 0.04 0.04 0.06 0.06 0.04 0.02 0.01 0.01 0.01 0.01 0.02 0.02 0.02 0.02 0.01 0.01
0.00 0.00 0.00 0.01 0.03 0.05 0.08 0.10 0.13 0.14 0.13 0.11 0.13 0.16 0.20 0.22 0.22 0.23 0.22 0.19 0.17 0.15 0.13 0.14 0.13 0.12 0.11 0.10 0.08 0.08 0.09 0.10 0.11 0.08 0.04 0.03 0.03 0.03 0.02 0.02 0.02 0.02 0.01
0.00 0.00 0.00 0.01 0.03 0.05 0.06 0.07 0.11 0.13 0.13 0.13 0.13 0.15 0.16 0.18 0.19 0.21 0.21 0.22 0.20 0.20 0.21 0.22 0.20 0.20 0.19 0.18 0.16 0.15 0.15 0.15 0.16 0.17 0.12 0.06 0.06 0.05 0.04 0.03 0.03 0.03 0.03
0.00 0.00 0.00 0.01 0.02 0.04 0.05 0.07 0.09 0.10 0.11 0.11 0.09 0.11 0.13 0.17 0.18 0.18 0.20 0.22 0.23 0.24 0.25 0.27 0.28 0.27 0.26 0.25 0.23 0.23 0.25 0.25 0.23 0.24 0.23 0.16 0.13 0.10 0.09 0.08 0.07 0.06 0.05

GEFSSE_prec_meanprecacc_084.txt.gz
Total_Precipitation_Accumulation
0.00 0.02 0.08 0.15 0.18 0.11 0.07 0.05 0.04 0.05 0.07 0.08 0.08 0.07 0.06 0.05 0.04 0.03 0.02 0.03 0.04 0.08 0.14 0.19 0.25 0.33 0.31 0.22 0.14 0.06 0.02 0.01 0.01 0.01 0.00 0.01 0.02 0.04 0.05 0.05 0.06 0.09 0.11
0.00 0.01 0.06 0.14 0.16 0.11 0.08 0.05 0.04 0.04 0.04 0.05 0.07 0.07 0.06 0.04 0.03 0.03 0.03 0.05 0.07 0.11 0.16 0.25 0.31 0.32 0.28 0.22 0.12 0.05 0.02 0.00 0.00 0.00 0.00 0.00 0.01 0.01 0.02 0.02 0.04 0.10 0.15
0.00 0.01 0.04 0.12 0.14 0.11 0.08 0.05 0.03 0.02 0.03 0.04 0.05 0.06 0.05 0.03 0.02 0.02 0.04 0.06 0.08 0.10 0.14 0.20 0.22 0.21 0.20 0.17 0.07 0.03 0.01 0.00 0.00 0.00 0.00 0.01 0.01 0.02 0.03 0.03 0.05 0.08 0.12
0.00 0.01 0.03 0.08 0.11 0.10 0.07 0.04 0.02 0.02 0.03 0.03 0.04 0.05 0.05 0.03 0.03 0.03 0.04 0.05 0.06 0.09 0.11 0.11 0.09 0.08 0.10 0.08 0.04 0.02 0.01 0.01 0.00 0.00 0.01 0.02 0.02 0.05 0.06 0.06 0.06 0.07 0.09
0.00 0.00 0.03 0.05 0.09 0.08 0.06 0.03 0.02 0.02 0.02 0.03 0.03 0.04 0.05 0.03 0.03 0.03 0.04 0.05 0.05 0.05 0.04 0.04 0.03 0.03 0.03 0.03 0.02 0.02 0.01 0.01 0.00 0.01 0.01 0.02 0.04 0.10 0.11 0.11 0.12 0.12 0.12
0.00 0.00 0.03 0.05 0.07 0.07 0.05 0.03 0.02 0.02 0.02 0.02 0.02 0.03 0.04 0.04 0.03 0.03 0.03 0.03 0.02 0.02 0.02 0.02 0.02 0.02 0.01 0.01 0.01 0.01 0.01 0.01 0.00 0.01 0.02 0.03 0.07 0.15 0.15 0.12 0.12 0.15 0.16
0.00 0.01 0.03 0.05 0.06 0.06 0.04 0.03 0.03 0.02 0.02 0.02 0.01 0.01 0.03 0.04 0.04 0.03 0.02 0.01 0.01 0.01 0.02 0.02 0.01 0.01 0.01 0.00 0.00 0.01 0.01 0.01 0.01 0.02 0.03 0.04 0.09 0.18 0.15 0.12 0.12 0.13 0.14
0.00 0.01 0.03 0.05 0.05 0.05 0.04 0.03 0.03 0.02 0.02 0.01 0.01 0.01 0.02 0.03 0.04 0.03 0.02 0.02 0.02 0.02 0.02 0.02 0.02 0.01 0.01 0.01 0.01 0.01 0.01 0.01 0.01 0.01 0.02 0.03 0.07 0.11 0.09 0.08 0.09 0.10 0.10
0.01 0.01 0.03 0.05 0.05 0.06 0.05 0.04 0.03 0.02 0.01 0.01 0.01 0.01 0.01 0.02 0.02 0.02 0.02 0.02 0.02 0.02 0.02 0.02 0.02 0.02 0.02 0.01 0.01 0.01 0.00 0.00 0.01 0.01 0.01 0.02 0.04 0.06 0.06 0.09 0.10 0.12 0.12
0.03 0.02 0.02 0.04 0.04 0.05 0.05 0.04 0.03 0.02 0.01 0.01 0.01 0.00 0.00 0.00 0.01 0.01 0.01 0.01 0.01 0.01 0.01 0.02 0.02 0.02 0.02 0.01 0.01 0.00 0.00 0.00 0.00 0.00 0.01 0.01 0.02 0.03 0.05 0.08 0.09 0.11 0.13
0.05 0.03 0.02 0.02 0.03 0.04 0.04 0.03 0.02 0.01 0.01 0.01 0.00 0.00 0.00 0.00 0.00 0.00 0.00 0.00 0.00 0.01 0.01 0.01 0.02 0.02 0.01 0.01 0.00 0.00 0.00 0.00 0.00 0.00 0.01 0.01 0.02 0.03 0.05 0.07 0.08 0.10 0.11
0.06 0.05 0.03 0.02 0.02 0.03 0.02 0.03 0.02 0.01 0.01 0.00 0.00 0.00 0.00 0.00 0.00 0.00 0.00 0.00 0.00 0.00 0.00 0.01 0.01 0.01 0.00 0.00 0.00 0.00 0.00 0.00 0.00 0.00 0.01 0.01 0.02 0.03 0.04 0.05 0.06 0.07 0.07
0.06 0.04 0.03 0.02 0.02 0.02 0.02 0.01 0.01 0.01 0.01 0.00 0.00 0.00 0.00 0.00 0.00 0.00 0.00 0.00 0.00 0.00 0.00 0.00 0.00 0.00 0.00 0.00 0.00 0.00 0.00 0.00 0.00 0.00 0.00 0.00 0.01 0.02 0.03 0.04 0.05 0.05 0.06
0.04 0.03 0.02 0.02 0.02 0.01 0.01 0.01 0.01 0.01 0.00 0.00 0.00 0.00 0.00 0.00 0.00 0.00 0.00 0.00 0.00 0.00 0.00 0.00 0.00 0.00 0.00 0.00 0.00 0.00 0.00 0.00 0.00 0.00 0.00 0.00 0.00 0.01 0.02 0.03 0.04 0.05 0.06
0.06 0.04 0.03 0.02 0.02 0.01 0.01 0.01 0.01 0.01 0.00 0.00 0.00 0.00 0.00 0.00 0.00 0.00 0.00 0.00 0.00 0.00 0.00 0.00 0.00 0.00 0.00 0.00 0.00 0.00 0.00 0.00 0.00 0.00 0.00 0.00 0.00 0.00 0.01 0.01 0.02 0.04 0.06
0.05 0.06 0.05 0.04 0.03 0.02 0.01 0.01 0.01 0.01 0.01 0.01 0.00 0.00 0.00 0.00 0.00 0.00 0.00 0.00 0.00 0.00 0.00 0.00 0.00 0.00 0.00 0.00 0.00 0.00 0.00 0.00 0.00 0.00 0.00 0.00 0.00 0.00 0.00 0.00 0.01 0.03 0.05
0.04 0.05 0.06 0.06 0.05 0.03 0.02 0.03 0.02 0.02 0.02 0.02 0.02 0.01 0.01 0.01 0.00 0.00 0.00 0.00 0.00 0.00 0.00 0.00 0.00 0.00 0.00 0.00 0.00 0.00 0.00 0.00 0.00 0.00 0.00 0.00 0.00 0.00 0.00 0.00 0.01 0.02 0.03
0.03 0.04 0.05 0.07 0.05 0.05 0.05 0.07 0.07 0.06 0.06 0.06 0.05 0.02 0.02 0.01 0.01 0.00 0.00 0.00 0.00 0.00 0.00 0.00 0.00 0.00 0.00 0.00 0.00 0.00 0.00 0.00 0.00 0.00 0.00 0.00 0.00 0.00 0.00 0.00 0.01 0.01 0.01
0.02 0.03 0.05 0.06 0.06 0.09 0.12 0.16 0.14 0.14 0.14 0.15 0.11 0.06 0.04 0.04 0.02 0.01 0.01 0.00 0.00 0.00 0.00 0.00 0.00 0.00 0.00 0.00 0.00 0.00 0.00 0.00 0.00 0.00 0.00 0.00 0.00 0.00 0.00 0.00 0.00 0.00 0.01
0.01 0.01 0.03 0.06 0.07 0.12 0.18 0.21 0.21 0.20 0.20 0.20 0.17 0.14 0.11 0.07 0.04 0.02 0.01 0.01 0.00 0.00 0.00 0.00 0.00 0.00 0.00 0.00 0.00 0.00 0.00 0.00 0.00 0.00 0.00 0.00 0.00 0.00 0.00 0.00 0.00 0.00 0.00
0.01 0.01 0.02 0.03 0.05 0.10 0.12 0.12 0.16 0.18 0.21 0.21 0.21 0.22 0.19 0.15 0.11 0.06 0.03 0.02 0.01 0.01 0.01 0.00 0.00 0.00 0.00 0.00 0.01 0.01 0.00 0.00 0.00 0.00 0.00 0.00 0.00 0.00 0.00 0.00 0.00 0.01 0.01
0.00 0.01 0.02 0.03 0.04 0.06 0.08 0.12 0.21 0.29 0.30 0.30 0.29 0.24 0.20 0.19 0.16 0.12 0.08 0.06 0.05 0.03 0.03 0.02 0.03 0.02 0.02 0.02 0.03 0.04 0.02 0.01 0.00 0.00 0.00 0.00 0.00 0.00 0.00 0.01 0.01 0.01 0.02
0.00 0.01 0.01 0.03 0.05 0.07 0.11 0.17 0.21 0.25 0.22 0.20 0.16 0.15 0.18 0.22 0.22 0.19 0.18 0.15 0.12 0.10 0.08 0.07 0.07 0.07 0.06 0.05 0.05 0.07 0.07 0.04 0.03 0.02 0.01 0.01 0.02 0.02 0.02 0.02 0.02 0.02 0.02
0.00 0.00 0.01 0.02 0.05 0.07 0.10 0.12 0.14 0.14 0.13 0.13 0.15 0.17 0.22 0.24 0.24 0.24 0.23 0.21 0.18 0.16 0.14 0.15 0.14 0.14 0.13 0.11 0.09 0.09 0.10 0.11 0.12 0.09 0.04 0.04 0.04 0.04 0.04 0.03 0.03 0.03 0.03
0.00 0.00 0.00 0.02 0.04 0.06 0.08 0.10 0.14 0.15 0.15 0.15 0.15 0.16 0.17 0.19 0.20 0.23 0.23 0.23 0.22 0.22 0.23 0.24 0.23 0.23 0.22 0.21 0.19 0.18 0.18 0.17 0.18 0.19 0.13 0.08 0.08 0.07 0.07 0.06 0.06 0.06 0.06
0.00 0.00 0.00 0.01 0.02 0.05 0.06 0.08 0.11 0.12 0.13 0.13 0.11 0.12 0.14 0.18 0.20 0.20 0.22 0.23 0.25 0.26 0.28 0.29 0.31 0.31 0.30 0.29 0.27 0.27 0.29 0.29 0.27 0.29 0.28 0.20 0.17 0.14 0.13 0.13 0.12 0.12 0.12

GEFSSE_prec_meanprecacc_090.txt.gz
Total_Precipitation_Accumulation
0.00 0.02 0.09 0.16 0.18 0.11 0.07 0.05 0.04 0.06 0.07 0.08 0.08 0.08 0.06 0.05 0.04 0.03 0.03 0.03 0.05 0.10 0.15 0.19 0.27 0.35 0.33 0.25 0.16 0.07 0.03 0.02 0.01 0.01 0.01 0.02 0.03 0.05 0.06 0.05 0.06 0.10 0.11
0.00 0.02 0.07 0.15 0.16 0.11 0.08 0.06 0.04 0.04 0.05 0.06 0.07 0.07 0.06 0.05 0.04 0.03 0.04 0.06 0.09 0.12 0.17 0.26 0.33 0.33 0.29 0.22 0.12 0.06 0.02 0.01 0.00 0.00 0.00 0.01 0.01 0.02 0.02 0.03 0.05 0.11 0.16
0.00 0.02 0.05 0.12 0.15 0.11 0.09 0.05 0.03 0.02 0.03 0.04 0.06 0.06 0.05 0.03 0.03 0.03 0.05 0.07 0.09 0.11 0.15 0.21 0.23 0.21 0.21 0.17 0.08 0.03 0.01 0.01 0.00 0.00 0.00 0.01 0.02 0.03 0.04 0.04 0.06 0.11 0.14
0.00 0.01 0.04 0.09 0.12 0.10 0.08 0.04 0.02 0.02 0.03 0.04 0.05 0.05 0.05 0.03 0.03 0.04 0.05 0.06 0.07 0.10 0.12 0.11 0.09 0.08 0.10 0.08 0.05 0.02 0.01 0.01 0.00 0.00 0.01 0.02 0.03 0.08 0.09 0.09 0.09 0.10 0.11
0.00 0.01 0.04 0.06 0.09 0.09 0.06 0.03 0.02 0.02 0.03 0.03 0.04 0.05 0.05 0.04 0.03 0.04 0.04 0.05 0.06 0.06 0.04 0.04 0.03 0.03 0.03 0.03 0.03 0.02 0.01 0.01 0.00 0.01 0.01 0.02 0.06 0.15 0.15 0.14 0.14 0.14 0.13
0.00 0.01 0.04 0.06 0.08 0.08 0.05 0.03 0.03 0.03 0.03 0.02 0.02 0.03 0.05 0.05 0.04 0.04 0.03 0.03 0.02 0.02 0.02 0.02 0.02 0.02 0.01 0.01 0.01 0.01 0.01 0.01 0.00 0.01 0.02 0.03 0.08 0.19 0.17 0.14 0.14 0.16 0.17
0.00 0.01 0.04 0.06 0.07 0.06 0.05 0.04 0.03 0.03 0.02 0.02 0.02 0.02 0.03 0.05 0.05 0.03 0.02 0.01 0.01 0.01 0.02 0.02 0.01 0.01 0.01 0.00 0.01 0.01 0.01 0.01 0.01 0.02 0.03 0.04 0.11 0.20 0.17 0.13 0.13 0.14 0.14
0.00 0.01 0.04 0.07 0.06 0.06 0.05 0.04 0.03 0.03 0.02 0.02 0.01 0.02 0.03 0.04 0.04 0.03 0.02 0.02 0.02 0.02 0.02 0.02 0.02 0.01 0.01 0.01 0.01 0.01 0.01 0.01 0.01 0.01 0.02 0.03 0.07 0.11 0.09 0.09 0.09 0.10 0.10
0.02 0.02 0.04 0.07 0.07 0.07 0.05 0.04 0.03 0.02 0.02 0.01 0.01 0.02 0.01 0.02 0.02 0.02 0.02 0.02 0.02 0.02 0.02 0.02 0.02 0.02 0.02 0.01 0.01 0.01 0.00 0.00 0.01 0.01 0.01 0.02 0.04 0.06 0.06 0.09 0.10 0.12 0.13
0.04 0.03 0.03 0.05 0.06 0.06 0.05 0.04 0.03 0.02 0.01 0.01 0.01 0.00 0.00 0.01 0.01 0.01 0.01 0.01 0.01 0.01 0.01 0.02 0.02 0.02 0.02 0.01 0.01 0.00 0.00 0.00 0.00 0.00 0.01 0.01 0.02 0.03 0.05 0.08 0.09 0.11 0.13
0.06 0.05 0.03 0.04 0.05 0.05 0.04 0.03 0.03 0.02 0.01 0.01 0.00 0.00 0.00 0.00 0.00 0.00 0.00 0.00 0.00 0.01 0.01 0.01 0.02 0.02 0.01 0.01 0.00 0.00 0.00 0.00 0.00 0.00 0.01 0.01 0.02 0.03 0.05 0.07 0.08 0.10 0.11
0.08 0.06 0.04 0.03 0.03 0.04 0.03 0.03 0.03 0.02 0.01 0.00 0.00 0.00 0.00 0.00 0.00 0.00 0.00 0.00 0.00 0.00 0.00 0.01 0.01 0.01 0.00 0.00 0.00 0.00 0.00 0.00 0.00 0.00 0.01 0.01 0.02 0.03 0.04 0.05 0.06 0.07 0.07
0.09 0.06 0.04 0.03 0.02 0.03 0.02 0.02 0.02 0.01 0.01 0.00 0.00 0.00 0.00 0.00 0.00 0.00 0.00 0.00 0.00 0.00 0.00 0.00 0.00 0.00 0.00 0.00 0.00 0.00 0.00 0.00 0.00 0.00 0.00 0.00 0.01 0.02 0.03 0.04 0.05 0.05 0.06
0.10 0.05 0.04 0.03 0.03 0.02 0.01 0.01 0.01 0.01 0.00 0.00 0.00 0.00 0.00 0.00 0.00 0.00 0.00 0.00 0.00 0.00 0.00 0.00 0.00 0.00 0.00 0.00 0.00 0.00 0.00 0.00 0.00 0.00 0.00 0.00 0.00 0.01 0.02 0.03 0.04 0.05 0.06
0.12 0.08 0.06 0.05 0.03 0.02 0.01 0.01 0.01 0.01 0.00 0.00 0.00 0.00 0.00 0.00 0.00 0.00 0.00 0.00 0.00 0.00 0.00 0.00 0.00 0.00 0.00 0.00 0.00 0.00 0.00 0.00 0.00 0.00 0.00 0.00 0.00 0.00 0.01 0.01 0.02 0.04 0.06
0.10 0.10 0.10 0.08 0.05 0.03 0.02 0.01 0.01 0.01 0.01 0.01 0.00 0.00 0.00 0.00 0.00 0.00 0.00 0.00 0.00 0.00 0.00 0.00 0.00 0.00 0.00 0.00 0.00 0.00 0.00 0.00 0.00 0.00 0.00 0.00 0.00 0.00 0.00 0.01 0.01 0.03 0.05
0.08 0.09 0.12 0.12 0.09 0.04 0.02 0.03 0.02 0.02 0.02 0.02 0.02 0.01 0.01 0.01 0.00 0.00 0.00 0.00 0.00 0.00 0.00 0.00 0.00 0.00 0.00 0.00 0.00 0.00 0.00 0.00 0.00 0.00 0.00 0.00 0.00 0.00 0.00 0.00 0.01 0.02 0.03
0.07 0.08 0.10 0.13 0.10 0.09 0.07 0.07 0.07 0.06 0.06 0.06 0.05 0.02 0.02 0.01 0.01 0.00 0.00 0.00 0.00 0.00 0.00 0.00 0.00 0.00 0.00 0.00 0.00 0.00 0.00 0.00 0.00 0.00 0.00 0.00 0.00 0.00 0.00 0.00 0.01 0.01 0.01
0.06 0.07 0.10 0.12 0.12 0.15 0.17 0.18 0.15 0.14 0.14 0.15 0.11 0.06 0.04 0.04 0.02 0.01 0.01 0.00 0.00 0.00 0.00 0.00 0.00 0.00 0.00 0.00 0.00 0.00 0.00 0.00 0.00 0.00 0.00 0.00 0.00 0.00 0.00 0.00 0.01 0.01 0.01
0.06 0.07 0.09 0.12 0.13 0.18 0.25 0.27 0.25 0.21 0.21 0.21 0.17 0.14 0.12 0.07 0.05 0.02 0.01 0.01 0.00 0.00 0.00 0.00 0.00 0.00 0.00 0.00 0.00 0.00 0.00 0.00 0.00 0.00 0.00 0.00 0.00 0.00 0.00 0.00 0.00 0.00 0.01
0.04 0.05 0.06 0.07 0.09 0.16 0.17 0.17 0.20 0.21 0.23 0.23 0.22 0.23 0.20 0.15 0.11 0.06 0.03 0.02 0.01 0.01 0.01 0.01 0.01 0.01 0.00 0.00 0.01 0.01 0.00 0.00 0.00 0.00 0.00 0.00 0.00 0.00 0.00 0.00 0.00 0.01 0.01
0.03 0.04 0.06 0.06 0.08 0.10 0.12 0.17 0.25 0.33 0.33 0.32 0.30 0.25 0.21 0.19 0.17 0.13 0.08 0.06 0.05 0.04 0.03 0.03 0.03 0.03 0.02 0.02 0.03 0.04 0.02 0.01 0.00 0.00 0.00 0.00 0.00 0.00 0.01 0.01 0.01 0.02 0.02
0.02 0.02 0.03 0.05 0.08 0.10 0.15 0.24 0.27 0.30 0.25 0.21 0.18 0.16 0.19 0.23 0.23 0.20 0.18 0.15 0.13 0.10 0.08 0.08 0.07 0.07 0.07 0.05 0.05 0.08 0.08 0.05 0.03 0.02 0.01 0.02 0.02 0.02 0.02 0.03 0.03 0.03 0.03
0.01 0.01 0.02 0.04 0.07 0.10 0.13 0.16 0.17 0.17 0.15 0.15 0.18 0.20 0.25 0.26 0.25 0.26 0.25 0.22 0.19 0.17 0.15 0.16 0.15 0.14 0.14 0.12 0.10 0.10 0.12 0.12 0.13 0.09 0.05 0.04 0.04 0.04 0.04 0.04 0.04 0.04 0.04
0.00 0.01 0.01 0.03 0.05 0.08 0.10 0.12 0.16 0.17 0.17 0.19 0.19 0.19 0.20 0.22 0.24 0.27 0.27 0.26 0.24 0.24 0.25 0.26 0.24 0.24 0.24 0.22 0.20 0.19 0.20 0.19 0.20 0.22 0.15 0.08 0.08 0.08 0.08 0.08 0.08 0.08 0.09
0.00 0.00 0.01 0.02 0.03 0.06 0.08 0.10 0.13 0.14 0.16 0.16 0.15 0.16 0.18 0.23 0.26 0.25 0.27 0.28 0.29 0.29 0.31 0.32 0.34 0.33 0.32 0.31 0.30 0.29 0.31 0.31 0.28 0.32 0.31 0.22 0.19 0.16 0.16 0.16 0.16 0.16 0.16

GEFSSE_prec_meanprecacc_096.txt.gz
Total_Precipitation_Accumulation
0.00 0.02 0.10 0.17 0.19 0.12 0.07 0.06 0.05 0.06 0.07 0.08 0.09 0.08 0.06 0.05 0.04 0.03 0.03 0.04 0.06 0.11 0.17 0.22 0.32 0.39 0.36 0.27 0.18 0.09 0.05 0.03 0.02 0.02 0.02 0.02 0.04 0.06 0.06 0.06 0.07 0.10 0.12
0.00 0.02 0.08 0.16 0.17 0.12 0.09 0.06 0.05 0.05 0.05 0.06 0.07 0.07 0.07 0.05 0.04 0.04 0.05 0.06 0.09 0.13 0.19 0.27 0.35 0.35 0.31 0.24 0.13 0.06 0.02 0.01 0.00 0.00 0.00 0.01 0.02 0.03 0.03 0.04 0.06 0.13 0.17
0.00 0.02 0.06 0.13 0.15 0.12 0.09 0.05 0.03 0.03 0.03 0.05 0.06 0.06 0.05 0.04 0.03 0.04 0.06 0.08 0.10 0.12 0.16 0.22 0.24 0.22 0.22 0.18 0.08 0.04 0.02 0.01 0.00 0.00 0.01 0.02 0.03 0.05 0.06 0.06 0.08 0.13 0.16
0.00 0.02 0.04 0.10 0.13 0.11 0.08 0.04 0.03 0.03 0.03 0.04 0.05 0.06 0.06 0.04 0.04 0.04 0.06 0.07 0.07 0.10 0.13 0.12 0.10 0.09 0.10 0.09 0.05 0.02 0.01 0.01 0.00 0.00 0.01 0.03 0.05 0.11 0.12 0.11 0.11 0.11 0.12
0.00 0.01 0.04 0.07 0.10 0.10 0.07 0.04 0.03 0.03 0.03 0.04 0.04 0.06 0.06 0.04 0.04 0.04 0.05 0.05 0.06 0.06 0.05 0.05 0.04 0.03 0.04 0.03 0.03 0.02 0.01 0.01 0.00 0.01 0.02 0.04 0.09 0.19 0.18 0.15 0.15 0.16 0.14
0.00 0.01 0.05 0.07 0.09 0.08 0.06 0.04 0.03 0.03 0.03 0.03 0.03 0.04 0.05 0.05 0.04 0.04 0.03 0.03 0.03 0.02 0.02 0.03 0.02 0.02 0.02 0.01 0.01 0.01 0.01 0.01 0.00 0.01 0.02 0.05 0.10 0.22 0.19 0.15 0.15 0.17 0.17
0.01 0.01 0.05 0.08 0.08 0.07 0.05 0.04 0.03 0.04 0.03 0.02 0.02 0.02 0.04 0.06 0.05 0.03 0.02 0.01 0.01 0.01 0.02 0.02 0.01 0.01 0.01 0.01 0.01 0.01 0.01 0.01 0.01 0.02 0.03 0.05 0.12 0.21 0.18 0.14 0.13 0.14 0.15
0.01 0.02 0.06 0.09 0.08 0.07 0.05 0.04 0.04 0.03 0.02 0.02 0.02 0.02 0.03 0.04 0.04 0.03 0.02 0.02 0.02 0.02 0.02 0.02 0.02 0.01 0.01 0.01 0.01 0.01 0.01 0.01 0.01 0.02 0.02 0.04 0.08 0.12 0.10 0.09 0.09 0.10 0.10
0.02 0.03 0.06 0.09 0.09 0.08 0.06 0.05 0.04 0.03 0.02 0.02 0.02 0.02 0.02 0.02 0.03 0.02 0.02 0.03 0.02 0.02 0.02 0.02 0.03 0.02 0.02 0.01 0.01 0.01 0.00 0.00 0.01 0.01 0.01 0.02 0.04 0.06 0.06 0.09 0.10 0.12 0.13
0.06 0.04 0.05 0.07 0.08 0.07 0.06 0.05 0.04 0.02 0.02 0.01 0.01 0.01 0.01 0.01 0.01 0.01 0.01 0.01 0.01 0.01 0.02 0.02 0.02 0.02 0.02 0.01 0.01 0.00 0.00 0.00 0.00 0.00 0.01 0.01 0.02 0.03 0.05 0.08 0.09 0.11 0.13
0.09 0.07 0.05 0.06 0.07 0.06 0.06 0.05 0.03 0.02 0.01 0.01 0.01 0.00 0.00 0.01 0.01 0.01 0.00 0.00 0.00 0.01 0.01 0.01 0.02 0.02 0.01 0.01 0.00 0.00 0.00 0.00 0.00 0.00 0.01 0.01 0.02 0.03 0.05 0.07 0.08 0.10 0.11
0.10 0.08 0.06 0.05 0.05 0.05 0.05 0.04 0.03 0.02 0.01 0.01 0.00 0.00 0.00 0.00 0.00 0.00 0.00 0.00 0.00 0.00 0.00 0.01 0.01 0.01 0.00 0.00 0.00 0.00 0.00 0.00 0.00 0.00 0.01 0.01 0.02 0.03 0.04 0.05 0.06 0.07 0.07
0.11 0.08 0.06 0.05 0.04 0.04 0.04 0.03 0.03 0.02 0.01 0.00 0.00 0.00 0.00 0.00 0.00 0.00 0.00 0.00 0.00 0.00 0.00 0.00 0.00 0.00 0.00 0.00 0.00 0.00 0.00 0.00 0.00 0.00 0.00 0.00 0.01 0.02 0.03 0.04 0.05 0.05 0.06
0.12 0.07 0.06 0.06 0.05 0.04 0.03 0.02 0.02 0.01 0.01 0.00 0.00 0.00 0.00 0.00 0.00 0.00 0.00 0.00 0.00 0.00 0.00 0.00 0.00 0.00 0.00 0.00 0.00 0.00 0.00 0.00 0.00 0.00 0.00 0.00 0.00 0.01 0.02 0.03 0.04 0.05 0.06
0.14 0.10 0.09 0.08 0.05 0.04 0.03 0.02 0.01 0.01 0.01 0.00 0.00 0.00 0.00 0.00 0.00 0.00 0.00 0.00 0.00 0.00 0.00 0.00 0.00 0.00 0.00 0.00 0.00 0.00 0.00 0.00 0.00 0.00 0.00 0.00 0.00 0.00 0.01 0.02 0.03 0.04 0.06
0.12 0.13 0.14 0.13 0.09 0.05 0.03 0.02 0.01 0.01 0.01 0.01 0.00 0.00 0.00 0.00 0.00 0.00 0.00 0.00 0.00 0.00 0.00 0.00 0.00 0.00 0.00 0.00 0.00 0.00 0.00 0.00 0.00 0.00 0.00 0.00 0.00 0.00 0.00 0.01 0.02 0.03 0.05
0.10 0.14 0.16 0.17 0.15 0.08 0.05 0.04 0.03 0.03 0.02 0.02 0.02 0.01 0.01 0.01 0.00 0.00 0.00 0.00 0.00 0.00 0.00 0.00 0.00 0.00 0.00 0.00 0.00 0.00 0.00 0.00 0.00 0.00 0.00 0.00 0.00 0.00 0.00 0.01 0.01 0.02 0.03
0.12 0.13 0.15 0.18 0.16 0.15 0.11 0.09 0.08 0.07 0.06 0.06 0.05 0.03 0.02 0.02 0.01 0.00 0.00 0.00 0.00 0.00 0.00 0.00 0.00 0.00 0.00 0.00 0.00 0.00 0.00 0.00 0.00 0.00 0.00 0.00 0.00 0.00 0.00 0.00 0.01 0.02 0.03
0.11 0.15 0.18 0.19 0.19 0.24 0.27 0.25 0.20 0.17 0.17 0.16 0.12 0.06 0.04 0.04 0.02 0.01 0.01 0.00 0.00 0.00 0.00 0.00 0.00 0.00 0.00 0.00 0.00 0.00 0.00 0.00 0.00 0.00 0.00 0.00 0.00 0.00 0.00 0.00 0.01 0.01 0.02
0.12 0.14 0.17 0.20 0.22 0.29 0.39 0.39 0.33 0.26 0.25 0.24 0.19 0.16 0.12 0.08 0.05 0.02 0.01 0.01 0.01 0.00 0.00 0.00 0.00 0.00 0.00 0.00 0.01 0.00 0.00 0.00 0.00 0.00 0.00 0.00 0.00 0.00 0.00 0.00 0.01 0.01 0.01
0.09 0.10 0.11 0.13 0.18 0.25 0.26 0.28 0.30 0.29 0.30 0.28 0.25 0.25 0.22 0.17 0.12 0.07 0.04 0.03 0.02 0.01 0.01 0.01 0.01 0.01 0.01 0.01 0.01 0.01 0.00 0.00 0.00 0.00 0.00 0.00 0.00 0.00 0.00 0.00 0.01 0.01 0.02
0.06 0.09 0.12 0.14 0.17 0.19 0.20 0.26 0.37 0.45 0.43 0.41 0.37 0.28 0.23 0.21 0.19 0.15 0.10 0.07 0.06 0.04 0.04 0.03 0.03 0.03 0.02 0.02 0.03 0.05 0.03 0.01 0.00 0.00 0.00 0.00 0.01 0.01 0.01 0.01 0.01 0.02 0.02
0.04 0.06 0.08 0.10 0.14 0.18 0.25 0.35 0.39 0.42 0.38 0.33 0.25 0.22 0.24 0.27 0.26 0.22 0.20 0.17 0.14 0.11 0.08 0.08 0.08 0.07 0.07 0.05 0.05 0.09 0.09 0.05 0.03 0.02 0.01 0.02 0.02 0.02 0.03 0.03 0.03 0.03 0.03
0.02 0.03 0.04 0.07 0.11 0.14 0.19 0.22 0.25 0.25 0.23 0.24 0.27 0.29 0.31 0.31 0.29 0.29 0.28 0.26 0.22 0.19 0.17 0.17 0.17 0.16 0.16 0.14 0.11 0.11 0.13 0.13 0.15 0.11 0.05 0.04 0.04 0.04 0.04 0.04 0.04 0.04 0.05
0.01 0.02 0.03 0.05 0.07 0.10 0.13 0.15 0.21 0.21 0.22 0.25 0.26 0.27 0.27 0.27 0.29 0.33 0.32 0.31 0.28 0.27 0.28 0.29 0.28 0.27 0.26 0.25 0.23 0.22 0.22 0.21 0.22 0.24 0.17 0.09 0.08 0.08 0.09 0.08 0.09 0.10 0.11
0.01 0.01 0.02 0.03 0.05 0.07 0.10 0.13 0.16 0.17 0.19 0.19 0.18 0.21 0.24 0.30 0.32 0.31 0.33 0.33 0.34 0.33 0.34 0.36 0.38 0.38 0.37 0.35 0.34 0.33 0.36 0.35 0.32 0.35 0.35 0.24 0.21 0.18 0.17 0.17 0.17 0.17 0.17

GEFSSE_prec_meanprecacc_102.txt.gz
Total_Precipitation_Accumulation
0.00 0.03 0.10 0.17 0.20 0.13 0.09 0.07 0.06 0.06 0.08 0.09 0.09 0.08 0.07 0.05 0.05 0.04 0.04 0.05 0.08 0.14 0.21 0.27 0.36 0.41 0.39 0.30 0.20 0.10 0.05 0.03 0.02 0.02 0.02 0.03 0.04 0.06 0.07 0.07 0.08 0.11 0.13
0.00 0.02 0.08 0.16 0.18 0.13 0.10 0.07 0.05 0.05 0.05 0.07 0.08 0.08 0.07 0.05 0.05 0.05 0.06 0.08 0.12 0.16 0.22 0.31 0.37 0.38 0.34 0.27 0.15 0.06 0.02 0.01 0.00 0.00 0.00 0.01 0.02 0.03 0.04 0.04 0.07 0.14 0.19
0.00 0.02 0.06 0.14 0.16 0.12 0.10 0.06 0.04 0.03 0.04 0.05 0.07 0.07 0.06 0.05 0.05 0.06 0.08 0.10 0.12 0.15 0.19 0.25 0.27 0.24 0.23 0.18 0.09 0.04 0.02 0.01 0.00 0.01 0.02 0.03 0.03 0.06 0.07 0.07 0.10 0.15 0.18
0.00 0.02 0.05 0.10 0.13 0.11 0.08 0.04 0.03 0.03 0.04 0.05 0.06 0.07 0.07 0.05 0.05 0.06 0.08 0.08 0.09 0.12 0.15 0.13 0.11 0.09 0.11 0.09 0.05 0.02 0.01 0.01 0.01 0.01 0.04 0.06 0.07 0.13 0.14 0.12 0.12 0.12 0.13
0.00 0.01 0.05 0.08 0.11 0.10 0.07 0.04 0.03 0.03 0.04 0.04 0.05 0.07 0.07 0.05 0.05 0.05 0.06 0.06 0.06 0.06 0.05 0.05 0.04 0.03 0.04 0.04 0.03 0.02 0.01 0.01 0.01 0.02 0.03 0.07 0.11 0.20 0.18 0.16 0.16 0.16 0.15
0.00 0.01 0.05 0.08 0.10 0.09 0.06 0.04 0.04 0.04 0.04 0.04 0.04 0.04 0.06 0.06 0.05 0.04 0.04 0.03 0.03 0.03 0.03 0.03 0.02 0.02 0.02 0.01 0.01 0.01 0.01 0.01 0.01 0.02 0.04 0.06 0.11 0.22 0.19 0.15 0.15 0.17 0.17
0.01 0.02 0.06 0.09 0.09 0.08 0.06 0.04 0.04 0.04 0.04 0.03 0.03 0.03 0.05 0.06 0.06 0.04 0.02 0.02 0.01 0.02 0.02 0.02 0.02 0.01 0.01 0.01 0.01 0.01 0.01 0.01 0.01 0.02 0.04 0.06 0.12 0.22 0.19 0.14 0.13 0.14 0.15
0.01 0.03 0.07 0.10 0.09 0.07 0.06 0.05 0.05 0.04 0.03 0.03 0.03 0.03 0.04 0.05 0.05 0.03 0.02 0.02 0.02 0.02 0.02 0.02 0.02 0.01 0.01 0.01 0.01 0.01 0.01 0.01 0.01 0.02 0.03 0.04 0.08 0.12 0.10 0.09 0.09 0.10 0.11
0.02 0.04 0.07 0.10 0.10 0.08 0.07 0.06 0.05 0.04 0.03 0.03 0.03 0.03 0.03 0.03 0.03 0.02 0.02 0.03 0.03 0.02 0.02 0.02 0.03 0.02 0.02 0.01 0.01 0.01 0.00 0.00 0.01 0.01 0.02 0.02 0.04 0.06 0.06 0.09 0.10 0.12 0.13
0.07 0.06 0.06 0.09 0.09 0.08 0.07 0.06 0.04 0.03 0.02 0.02 0.02 0.01 0.01 0.01 0.01 0.01 0.01 0.01 0.01 0.01 0.02 0.02 0.03 0.02 0.02 0.01 0.01 0.00 0.00 0.00 0.01 0.01 0.01 0.01 0.02 0.03 0.05 0.08 0.09 0.11 0.13
0.11 0.09 0.07 0.08 0.08 0.08 0.07 0.06 0.04 0.03 0.02 0.02 0.01 0.01 0.00 0.01 0.01 0.01 0.01 0.00 0.01 0.01 0.01 0.01 0.02 0.02 0.01 0.01 0.00 0.00 0.00 0.01 0.00 0.00 0.01 0.01 0.02 0.03 0.05 0.07 0.08 0.10 0.11
0.13 0.12 0.10 0.08 0.07 0.07 0.06 0.05 0.05 0.03 0.02 0.01 0.01 0.01 0.01 0.01 0.01 0.00 0.00 0.00 0.00 0.00 0.00 0.01 0.01 0.01 0.00 0.00 0.00 0.00 0.00 0.00 0.00 0.00 0.01 0.01 0.02 0.03 0.04 0.05 0.06 0.07 0.07
0.13 0.10 0.11 0.11 0.08 0.06 0.06 0.04 0.04 0.03 0.02 0.01 0.01 0.01 0.01 0.01 0.00 0.00 0.00 0.00 0.00 0.00 0.00 0.00 0.00 0.00 0.00 0.00 0.00 0.00 0.00 0.00 0.00 0.00 0.00 0.00 0.01 0.02 0.03 0.04 0.05 0.05 0.06
0.17 0.10 0.11 0.14 0.11 0.07 0.05 0.04 0.04 0.03 0.02 0.01 0.01 0.01 0.01 0.01 0.00 0.00 0.00 0.00 0.00 0.00 0.00 0.00 0.00 0.00 0.00 0.00 0.00 0.00 0.00 0.00 0.00 0.00 0.00 0.00 0.00 0.01 0.02 0.03 0.04 0.05 0.06
0.24 0.17 0.15 0.15 0.14 0.11 0.07 0.05 0.03 0.03 0.03 0.02 0.01 0.01 0.01 0.01 0.00 0.00 0.00 0.00 0.00 0.00 0.00 0.00 0.00 0.00 0.00 0.00 0.00 0.00 0.00 0.00 0.00 0.00 0.00 0.00 0.00 0.00 0.01 0.02 0.03 0.04 0.06
0.21 0.23 0.22 0.21 0.19 0.15 0.09 0.06 0.03 0.02 0.02 0.02 0.01 0.01 0.01 0.01 0.01 0.00 0.00 0.00 0.00 0.00 0.00 0.00 0.00 0.00 0.00 0.00 0.00 0.00 0.00 0.00 0.00 0.00 0.00 0.00 0.00 0.00 0.00 0.01 0.02 0.04 0.06
0.16 0.22 0.25 0.26 0.25 0.18 0.13 0.11 0.07 0.06 0.05 0.04 0.03 0.02 0.02 0.01 0.01 0.00 0.00 0.00 0.00 0.00 0.00 0.00 0.00 0.00 0.00 0.00 0.00 0.00 0.00 0.00 0.00 0.00 0.00 0.00 0.00 0.00 0.00 0.01 0.01 0.03 0.04
0.18 0.20 0.22 0.25 0.25 0.27 0.23 0.18 0.16 0.13 0.11 0.09 0.07 0.04 0.03 0.02 0.01 0.01 0.00 0.00 0.00 0.00 0.00 0.00 0.00 0.00 0.00 0.00 0.00 0.00 0.00 0.00 0.00 0.00 0.00 0.00 0.00 0.00 0.00 0.00 0.01 0.02 0.03
0.17 0.21 0.24 0.24 0.27 0.36 0.43 0.39 0.30 0.26 0.24 0.21 0.16 0.09 0.05 0.04 0.03 0.02 0.01 0.01 0.01 0.01 0.00 0.00 0.00 0.00 0.00 0.00 0.00 0.00 0.00 0.00 0.00 0.00 0.00 0.00 0.00 0.00 0.00 0.00 0.01 0.02 0.02
0.17 0.22 0.25 0.29 0.32 0.43 0.56 0.55 0.47 0.38 0.34 0.29 0.23 0.18 0.14 0.08 0.05 0.03 0.02 0.02 0.02 0.01 0.01 0.01 0.01 0.01 0.01 0.01 0.01 0.01 0.00 0.00 0.00 0.00 0.00 0.00 0.00 0.00 0.00 0.00 0.01 0.01 0.01
0.13 0.17 0.19 0.22 0.28 0.38 0.39 0.40 0.41 0.39 0.39 0.34 0.29 0.28 0.24 0.18 0.13 0.08 0.05 0.03 0.03 0.02 0.02 0.02 0.02 0.02 0.01 0.01 0.01 0.01 0.00 0.00 0.00 0.00 0.00 0.00 0.00 0.00 0.00 0.00 0.01 0.01 0.02
0.08 0.12 0.16 0.21 0.28 0.29 0.27 0.33 0.47 0.58 0.55 0.52 0.47 0.35 0.27 0.24 0.22 0.17 0.11 0.08 0.07 0.05 0.05 0.05 0.05 0.04 0.03 0.03 0.04 0.05 0.03 0.01 0.00 0.01 0.01 0.01 0.01 0.01 0.01 0.01 0.01 0.02 0.02
0.06 0.08 0.11 0.16 0.21 0.26 0.33 0.45 0.52 0.57 0.52 0.45 0.36 0.30 0.31 0.34 0.32 0.27 0.24 0.19 0.16 0.13 0.10 0.10 0.10 0.09 0.09 0.07 0.07 0.10 0.11 0.06 0.04 0.02 0.01 0.02 0.02 0.03 0.03 0.03 0.03 0.03 0.03
0.04 0.05 0.08 0.13 0.17 0.20 0.26 0.28 0.32 0.35 0.34 0.34 0.38 0.41 0.43 0.40 0.37 0.36 0.34 0.30 0.26 0.23 0.19 0.20 0.20 0.19 0.18 0.16 0.14 0.13 0.15 0.16 0.17 0.12 0.05 0.04 0.05 0.05 0.05 0.05 0.04 0.05 0.05
0.03 0.04 0.05 0.07 0.11 0.14 0.18 0.20 0.26 0.28 0.32 0.37 0.37 0.36 0.36 0.37 0.37 0.40 0.39 0.38 0.33 0.32 0.33 0.34 0.33 0.32 0.31 0.30 0.28 0.26 0.26 0.25 0.25 0.28 0.19 0.10 0.09 0.09 0.09 0.09 0.09 0.10 0.11
0.01 0.02 0.05 0.06 0.07 0.11 0.14 0.18 0.19 0.21 0.24 0.25 0.26 0.30 0.32 0.37 0.39 0.38 0.39 0.40 0.40 0.38 0.38 0.40 0.44 0.44 0.42 0.40 0.39 0.38 0.40 0.39 0.35 0.40 0.38 0.26 0.22 0.19 0.18 0.19 0.19 0.18 0.18

GEFSSE_prec_meanprecacc_108.txt.gz
Total_Precipitation_Accumulation
0.01 0.03 0.11 0.18 0.20 0.13 0.09 0.08 0.06 0.07 0.08 0.09 0.09 0.08 0.07 0.06 0.05 0.05 0.06 0.07 0.11 0.17 0.24 0.29 0.38 0.43 0.40 0.31 0.21 0.10 0.05 0.03 0.02 0.02 0.02 0.03 0.05 0.07 0.07 0.07 0.09 0.12 0.15
0.01 0.03 0.09 0.16 0.18 0.13 0.10 0.08 0.06 0.05 0.06 0.07 0.08 0.08 0.08 0.06 0.06 0.07 0.08 0.11 0.15 0.19 0.25 0.33 0.39 0.39 0.34 0.27 0.15 0.07 0.02 0.01 0.01 0.00 0.00 0.01 0.02 0.04 0.05 0.05 0.08 0.16 0.21
0.00 0.02 0.07 0.14 0.16 0.13 0.10 0.06 0.04 0.04 0.04 0.06 0.08 0.08 0.07 0.06 0.06 0.08 0.11 0.13 0.15 0.18 0.22 0.28 0.29 0.25 0.24 0.19 0.09 0.04 0.02 0.01 0.01 0.01 0.02 0.03 0.04 0.07 0.08 0.08 0.11 0.16 0.20
0.00 0.02 0.05 0.10 0.13 0.12 0.09 0.05 0.03 0.03 0.04 0.06 0.07 0.08 0.08 0.07 0.07 0.09 0.11 0.11 0.12 0.15 0.18 0.16 0.12 0.10 0.11 0.10 0.05 0.03 0.02 0.01 0.01 0.02 0.04 0.06 0.08 0.14 0.15 0.13 0.13 0.13 0.14
0.00 0.01 0.05 0.08 0.11 0.10 0.07 0.04 0.03 0.03 0.04 0.05 0.06 0.08 0.08 0.07 0.07 0.08 0.08 0.07 0.08 0.09 0.08 0.06 0.04 0.04 0.04 0.04 0.03 0.02 0.02 0.01 0.01 0.02 0.04 0.07 0.11 0.21 0.19 0.16 0.16 0.16 0.15
0.01 0.02 0.05 0.08 0.10 0.09 0.06 0.04 0.04 0.04 0.04 0.04 0.04 0.05 0.07 0.07 0.06 0.06 0.05 0.04 0.04 0.04 0.04 0.03 0.03 0.02 0.02 0.01 0.01 0.01 0.01 0.01 0.01 0.02 0.04 0.06 0.11 0.23 0.19 0.15 0.15 0.17 0.18
0.01 0.02 0.06 0.09 0.09 0.08 0.06 0.05 0.04 0.05 0.04 0.03 0.03 0.04 0.05 0.07 0.06 0.04 0.03 0.02 0.02 0.02 0.02 0.02 0.02 0.01 0.01 0.01 0.01 0.01 0.01 0.01 0.01 0.02 0.04 0.07 0.12 0.22 0.19 0.14 0.13 0.14 0.15
0.01 0.03 0.08 0.11 0.09 0.08 0.06 0.05 0.05 0.05 0.04 0.03 0.03 0.04 0.05 0.05 0.05 0.03 0.03 0.03 0.02 0.02 0.02 0.02 0.02 0.01 0.01 0.01 0.01 0.01 0.01 0.01 0.01 0.02 0.03 0.04 0.08 0.12 0.10 0.09 0.09 0.11 0.11
0.03 0.04 0.08 0.12 0.11 0.09 0.07 0.06 0.05 0.04 0.03 0.03 0.04 0.03 0.03 0.03 0.03 0.02 0.03 0.03 0.03 0.02 0.02 0.03 0.03 0.02 0.02 0.01 0.01 0.01 0.00 0.00 0.01 0.01 0.02 0.02 0.04 0.06 0.06 0.09 0.10 0.12 0.13
0.08 0.07 0.08 0.10 0.10 0.09 0.08 0.07 0.05 0.03 0.03 0.03 0.02 0.01 0.01 0.01 0.02 0.01 0.01 0.02 0.01 0.01 0.02 0.02 0.03 0.02 0.02 0.01 0.01 0.00 0.00 0.01 0.01 0.01 0.01 0.01 0.02 0.03 0.05 0.08 0.09 0.11 0.13
0.16 0.11 0.09 0.09 0.09 0.08 0.08 0.06 0.05 0.03 0.03 0.02 0.02 0.01 0.00 0.01 0.01 0.01 0.01 0.00 0.01 0.01 0.01 0.01 0.02 0.02 0.01 0.01 0.00 0.00 0.00 0.01 0.00 0.00 0.01 0.01 0.02 0.03 0.05 0.07 0.08 0.10 0.11
0.18 0.16 0.12 0.09 0.08 0.08 0.07 0.06 0.05 0.04 0.02 0.01 0.01 0.01 0.01 0.01 0.01 0.00 0.00 0.00 0.00 0.00 0.00 0.01 0.01 0.01 0.00 0.00 0.00 0.00 0.00 0.00 0.00 0.00 0.01 0.01 0.02 0.03 0.04 0.05 0.06 0.07 0.07
0.18 0.15 0.15 0.13 0.09 0.07 0.06 0.05 0.04 0.03 0.02 0.01 0.01 0.01 0.01 0.01 0.00 0.00 0.00 0.00 0.00 0.00 0.00 0.00 0.00 0.00 0.00 0.00 0.00 0.00 0.00 0.00 0.00 0.00 0.00 0.00 0.01 0.02 0.03 0.04 0.05 0.05 0.06
0.25 0.17 0.17 0.19 0.14 0.08 0.06 0.04 0.04 0.04 0.03 0.02 0.01 0.01 0.01 0.01 0.00 0.00 0.00 0.00 0.00 0.00 0.00 0.00 0.00 0.00 0.00 0.00 0.00 0.00 0.00 0.00 0.00 0.00 0.00 0.00 0.00 0.01 0.02 0.03 0.04 0.05 0.06
0.35 0.26 0.25 0.23 0.20 0.14 0.09 0.06 0.04 0.04 0.03 0.03 0.02 0.01 0.01 0.01 0.00 0.00 0.00 0.00 0.00 0.00 0.00 0.00 0.00 0.00 0.00 0.00 0.00 0.00 0.00 0.00 0.00 0.00 0.00 0.00 0.00 0.00 0.01 0.02 0.03 0.04 0.06
0.38 0.39 0.36 0.33 0.28 0.21 0.13 0.08 0.04 0.03 0.02 0.02 0.02 0.01 0.01 0.01 0.01 0.00 0.00 0.00 0.00 0.00 0.00 0.00 0.00 0.00 0.00 0.00 0.00 0.00 0.00 0.00 0.00 0.00 0.00 0.00 0.00 0.00 0.00 0.01 0.02 0.04 0.06
0.33 0.41 0.44 0.43 0.40 0.30 0.21 0.18 0.11 0.08 0.07 0.05 0.04 0.02 0.02 0.02 0.01 0.00 0.00 0.00 0.00 0.00 0.00 0.00 0.00 0.00 0.00 0.00 0.00 0.00 0.00 0.00 0.00 0.00 0.00 0.00 0.00 0.00 0.00 0.01 0.02 0.03 0.04
0.37 0.39 0.43 0.49 0.46 0.45 0.38 0.31 0.25 0.18 0.15 0.12 0.08 0.05 0.03 0.02 0.01 0.01 0.01 0.00 0.00 0.00 0.00 0.00 0.00 0.00 0.00 0.00 0.00 0.00 0.00 0.00 0.00 0.00 0.00 0.00 0.00 0.00 0.00 0.00 0.01 0.02 0.03
0.35 0.43 0.44 0.44 0.50 0.60 0.65 0.59 0.46 0.38 0.33 0.28 0.22 0.12 0.07 0.05 0.03 0.02 0.02 0.01 0.01 0.01 0.00 0.00 0.00 0.00 0.00 0.00 0.00 0.00 0.00 0.00 0.00 0.00 0.00 0.00 0.00 0.00 0.00 0.00 0.01 0.02 0.02
0.32 0.43 0.47 0.50 0.57 0.71 0.86 0.85 0.74 0.59 0.48 0.38 0.30 0.23 0.18 0.12 0.08 0.05 0.04 0.03 0.03 0.02 0.01 0.01 0.01 0.01 0.01 0.01 0.01 0.01 0.00 0.00 0.00 0.00 0.00 0.00 0.00 0.00 0.00 0.00 0.01 0.01 0.01
0.27 0.35 0.42 0.43 0.48 0.61 0.64 0.63 0.63 0.59 0.54 0.45 0.39 0.37 0.30 0.22 0.16 0.10 0.07 0.05 0.04 0.03 0.02 0.02 0.02 0.02 0.01 0.01 0.02 0.01 0.00 0.00 0.00 0.00 0.00 0.00 0.01 0.00 0.00 0.01 0.01 0.01 0.02
0.20 0.27 0.33 0.39 0.47 0.47 0.46 0.54 0.68 0.81 0.80 0.73 0.65 0.48 0.35 0.29 0.25 0.20 0.14 0.10 0.08 0.06 0.05 0.05 0.06 0.04 0.03 0.03 0.05 0.06 0.03 0.01 0.00 0.01 0.01 0.01 0.01 0.01 0.01 0.01 0.02 0.02 0.02
0.15 0.19 0.23 0.31 0.38 0.42 0.50 0.64 0.73 0.78 0.74 0.64 0.52 0.44 0.42 0.43 0.40 0.33 0.28 0.22 0.18 0.14 0.11 0.11 0.11 0.10 0.10 0.08 0.08 0.12 0.12 0.06 0.04 0.02 0.02 0.02 0.03 0.03 0.03 0.03 0.03 0.03 0.03
0.10 0.13 0.17 0.23 0.28 0.33 0.39 0.44 0.47 0.49 0.47 0.45 0.48 0.51 0.55 0.53 0.49 0.46 0.42 0.36 0.30 0.26 0.22 0.22 0.22 0.20 0.19 0.17 0.15 0.15 0.17 0.18 0.19 0.13 0.06 0.05 0.05 0.05 0.05 0.05 0.05 0.05 0.06
0.07 0.10 0.14 0.16 0.18 0.22 0.29 0.35 0.44 0.44 0.45 0.49 0.50 0.50 0.49 0.49 0.50 0.51 0.47 0.44 0.38 0.36 0.36 0.38 0.36 0.35 0.34 0.32 0.31 0.29 0.29 0.28 0.29 0.31 0.20 0.10 0.09 0.09 0.10 0.10 0.10 0.11 0.12
0.05 0.07 0.11 0.13 0.15 0.19 0.23 0.29 0.33 0.35 0.38 0.38 0.39 0.44 0.46 0.48 0.49 0.48 0.48 0.46 0.46 0.44 0.44 0.46 0.50 0.49 0.48 0.47 0.45 0.44 0.46 0.44 0.40 0.45 0.42 0.28 0.24 0.21 0.20 0.21 0.21 0.20 0.20

GEFSSE_prec_meanprecacc_114.txt.gz
Total_Precipitation_Accumulation
0.01 0.04 0.13 0.19 0.21 0.14 0.09 0.08 0.06 0.07 0.08 0.10 0.10 0.09 0.08 0.07 0.06 0.06 0.07 0.09 0.14 0.20 0.26 0.31 0.40 0.44 0.41 0.32 0.22 0.11 0.06 0.04 0.03 0.02 0.03 0.04 0.06 0.08 0.08 0.08 0.09 0.14 0.17
0.01 0.03 0.10 0.18 0.20 0.14 0.11 0.08 0.06 0.05 0.06 0.08 0.09 0.10 0.09 0.08 0.07 0.08 0.11 0.13 0.17 0.22 0.27 0.34 0.41 0.40 0.35 0.28 0.15 0.07 0.03 0.01 0.01 0.00 0.00 0.01 0.03 0.06 0.06 0.06 0.09 0.17 0.23
0.01 0.03 0.08 0.16 0.18 0.14 0.11 0.07 0.04 0.04 0.05 0.06 0.09 0.09 0.09 0.08 0.08 0.11 0.14 0.15 0.18 0.21 0.24 0.29 0.30 0.26 0.24 0.19 0.09 0.04 0.02 0.01 0.01 0.01 0.02 0.03 0.05 0.08 0.09 0.08 0.12 0.17 0.21
0.00 0.02 0.06 0.12 0.15 0.13 0.10 0.05 0.03 0.03 0.05 0.06 0.08 0.09 0.10 0.09 0.10 0.13 0.13 0.14 0.15 0.18 0.20 0.17 0.12 0.11 0.12 0.10 0.06 0.03 0.02 0.01 0.01 0.02 0.04 0.06 0.08 0.15 0.15 0.13 0.14 0.14 0.15
0.01 0.02 0.06 0.10 0.12 0.11 0.08 0.05 0.04 0.04 0.05 0.06 0.07 0.09 0.10 0.09 0.10 0.11 0.11 0.10 0.10 0.11 0.09 0.06 0.05 0.04 0.04 0.04 0.04 0.02 0.02 0.01 0.01 0.02 0.04 0.07 0.12 0.22 0.20 0.17 0.16 0.17 0.16
0.01 0.03 0.08 0.10 0.11 0.10 0.07 0.05 0.04 0.05 0.05 0.05 0.05 0.06 0.09 0.10 0.09 0.08 0.07 0.05 0.05 0.04 0.04 0.03 0.03 0.03 0.02 0.01 0.01 0.01 0.01 0.01 0.01 0.02 0.04 0.06 0.11 0.23 0.20 0.16 0.16 0.18 0.18
0.02 0.04 0.09 0.12 0.11 0.08 0.06 0.05 0.05 0.05 0.05 0.04 0.04 0.05 0.07 0.09 0.08 0.05 0.03 0.03 0.02 0.03 0.03 0.03 0.02 0.01 0.01 0.01 0.01 0.01 0.01 0.01 0.01 0.02 0.04 0.07 0.13 0.22 0.19 0.14 0.14 0.15 0.15
0.03 0.06 0.12 0.15 0.11 0.08 0.07 0.05 0.05 0.05 0.04 0.04 0.04 0.05 0.06 0.07 0.06 0.04 0.03 0.03 0.03 0.03 0.03 0.03 0.02 0.01 0.01 0.01 0.01 0.01 0.01 0.01 0.01 0.02 0.03 0.04 0.08 0.12 0.10 0.09 0.09 0.11 0.11
0.06 0.09 0.14 0.18 0.14 0.10 0.07 0.06 0.05 0.05 0.04 0.04 0.04 0.04 0.04 0.03 0.03 0.03 0.03 0.03 0.03 0.03 0.02 0.03 0.03 0.02 0.02 0.01 0.01 0.01 0.00 0.00 0.01 0.01 0.02 0.02 0.04 0.06 0.06 0.09 0.10 0.12 0.13
0.14 0.14 0.14 0.17 0.14 0.11 0.09 0.07 0.05 0.04 0.03 0.03 0.03 0.02 0.01 0.01 0.02 0.02 0.01 0.02 0.02 0.02 0.02 0.02 0.03 0.02 0.02 0.01 0.01 0.00 0.00 0.01 0.01 0.01 0.01 0.01 0.02 0.03 0.05 0.08 0.09 0.11 0.13
0.28 0.20 0.17 0.15 0.13 0.10 0.09 0.07 0.05 0.04 0.03 0.02 0.02 0.01 0.01 0.01 0.01 0.01 0.01 0.01 0.01 0.01 0.01 0.01 0.02 0.02 0.01 0.01 0.00 0.00 0.00 0.01 0.00 0.00 0.01 0.01 0.02 0.03 0.05 0.07 0.08 0.10 0.11
0.31 0.27 0.21 0.16 0.12 0.09 0.09 0.07 0.06 0.04 0.03 0.02 0.01 0.01 0.01 0.01 0.01 0.00 0.00 0.00 0.01 0.01 0.01 0.01 0.01 0.01 0.00 0.00 0.00 0.00 0.00 0.00 0.00 0.00 0.01 0.01 0.02 0.03 0.04 0.05 0.06 0.07 0.07
0.28 0.29 0.28 0.22 0.14 0.09 0.08 0.06 0.05 0.04 0.03 0.02 0.01 0.01 0.01 0.01 0.00 0.00 0.00 0.00 0.00 0.00 0.00 0.00 0.00 0.00 0.00 0.00 0.00 0.00 0.00 0.00 0.00 0.00 0.00 0.00 0.01 0.02 0.03 0.04 0.05 0.05 0.06
0.32 0.27 0.30 0.29 0.20 0.12 0.08 0.05 0.05 0.04 0.03 0.02 0.01 0.01 0.01 0.01 0.00 0.00 0.00 0.00 0.00 0.00 0.00 0.00 0.00 0.00 0.00 0.00 0.00 0.00 0.00 0.00 0.00 0.00 0.00 0.00 0.00 0.01 0.02 0.03 0.04 0.05 0.06
0.42 0.34 0.36 0.33 0.25 0.18 0.11 0.07 0.04 0.04 0.03 0.03 0.02 0.01 0.01 0.01 0.00 0.00 0.00 0.00 0.00 0.00 0.00 0.00 0.00 0.00 0.00 0.00 0.00 0.00 0.00 0.00 0.00 0.00 0.00 0.00 0.00 0.00 0.01 0.02 0.03 0.04 0.07
0.52 0.49 0.48 0.45 0.35 0.25 0.16 0.10 0.05 0.04 0.03 0.02 0.02 0.02 0.01 0.01 0.01 0.00 0.00 0.00 0.00 0.00 0.00 0.00 0.00 0.00 0.00 0.00 0.00 0.00 0.00 0.00 0.00 0.00 0.00 0.00 0.00 0.00 0.00 0.01 0.02 0.04 0.06
0.54 0.58 0.59 0.59 0.52 0.38 0.25 0.20 0.13 0.10 0.09 0.06 0.04 0.02 0.02 0.02 0.01 0.01 0.00 0.00 0.00 0.00 0.00 0.00 0.00 0.00 0.00 0.00 0.00 0.00 0.00 0.00 0.00 0.00 0.00 0.00 0.00 0.00 0.00 0.01 0.02 0.04 0.05
0.64 0.61 0.63 0.69 0.63 0.56 0.45 0.35 0.27 0.21 0.18 0.13 0.09 0.05 0.04 0.03 0.02 0.01 0.01 0.00 0.00 0.00 0.00 0.00 0.00 0.00 0.00 0.00 0.00 0.00 0.00 0.00 0.00 0.00 0.00 0.00 0.00 0.00 0.00 0.00 0.01 0.02 0.04
0.65 0.69 0.69 0.69 0.73 0.75 0.77 0.69 0.52 0.42 0.35 0.30 0.23 0.13 0.07 0.05 0.04 0.03 0.02 0.02 0.01 0.01 0.00 0.00 0.00 0.00 0.00 0.00 0.00 0.00 0.00 0.00 0.00 0.00 0.00 0.00 0.00 0.00 0.00 0.00 0.01 0.02 0.03
0.67 0.76 0.78 0.81 0.89 1.02 1.10 1.05 0.89 0.69 0.55 0.44 0.34 0.27 0.20 0.14 0.10 0.07 0.05 0.04 0.03 0.02 0.02 0.02 0.01 0.01 0.01 0.01 0.01 0.01 0.00 0.00 0.00 0.00 0.00 0.00 0.00 0.00 0.00 0.01 0.01 0.01 0.01
0.62 0.75 0.81 0.80 0.89 1.06 1.00 0.89 0.81 0.73 0.67 0.57 0.48 0.44 0.36 0.27 0.20 0.13 0.10 0.08 0.06 0.05 0.04 0.03 0.03 0.02 0.02 0.02 0.02 0.01 0.00 0.00 0.00 0.00 0.00 0.00 0.01 0.00 0.00 0.01 0.01 0.01 0.02
0.46 0.63 0.74 0.82 0.92 0.98 0.92 0.90 0.96 1.06 1.03 0.94 0.84 0.63 0.48 0.39 0.31 0.24 0.17 0.13 0.11 0.09 0.08 0.07 0.07 0.06 0.04 0.04 0.05 0.07 0.03 0.01 0.00 0.01 0.01 0.01 0.01 0.01 0.01 0.01 0.02 0.02 0.03
0.30 0.42 0.56 0.70 0.81 0.91 1.01 1.18 1.23 1.22 1.08 0.90 0.76 0.69 0.64 0.62 0.54 0.44 0.39 0.30 0.24 0.18 0.14 0.14 0.14 0.12 0.11 0.09 0.09 0.14 0.13 0.07 0.04 0.02 0.02 0.02 0.03 0.03 0.03 0.04 0.04 0.04 0.04
0.21 0.29 0.39 0.54 0.66 0.76 0.86 0.94 0.97 0.93 0.82 0.73 0.75 0.79 0.83 0.79 0.72 0.67 0.58 0.48 0.39 0.33 0.27 0.27 0.25 0.23 0.22 0.20 0.18 0.17 0.19 0.19 0.20 0.13 0.06 0.05 0.05 0.05 0.06 0.06 0.06 0.06 0.07
0.16 0.23 0.32 0.42 0.50 0.59 0.68 0.73 0.84 0.86 0.83 0.85 0.83 0.80 0.76 0.74 0.72 0.71 0.65 0.59 0.49 0.45 0.43 0.43 0.40 0.39 0.37 0.35 0.33 0.31 0.31 0.30 0.31 0.35 0.22 0.11 0.10 0.10 0.11 0.11 0.11 0.12 0.13
0.11 0.16 0.24 0.35 0.45 0.51 0.58 0.63 0.69 0.72 0.75 0.74 0.73 0.74 0.73 0.73 0.70 0.67 0.65 0.62 0.60 0.55 0.52 0.52 0.55 0.53 0.51 0.49 0.47 0.46 0.49 0.48 0.44 0.50 0.47 0.31 0.26 0.22 0.21 0.22 0.22 0.22 0.22